K5BWX-2 Weather Reports


Display with metric or nautical units.
time (UTC)temp
F
wind
direction
speed
MPH
gust
MPH
rain 1hr
in
rain 24hr
in
rain mn
in
humidity
%
barometer
mb
20260831212626 88 226 2.0 4.0 0.00 0.00 0.00 56 1023.1
20260831212529 88 219 2.0 4.0 0.00 0.00 0.00 55 1023.1
20260831212425 89 317 2.0 4.0 0.00 0.00 0.00 56 1023.1
20260831212325 89 217 2.0 4.0 0.00 0.00 0.00 53 1023.2
20260831212228 89 205 2.0 4.0 0.00 0.00 0.00 54 1023.1
20260831212126 89 202 2.0 4.0 0.00 0.00 0.00 55 1023.2
20260831212025 89 209 2.0 4.0 0.00 0.00 0.00 55 1023.1
20260831211957 88 318 2.0 4.0 0.00 0.00 0.00 55 1023.2
20260831211947 88 319 2.0 4.0 0.00 0.00 0.00 54 1023.1
20260831211721 88 247 2.0 4.0 0.00 0.00 0.00 56 1023.2
20260831211620 88 225 2.0 4.0 0.00 0.00 0.00 55 1023.1
20260831211555 88 232 2.0 5.0 0.00 0.00 0.00 55 1023.2
20260831211542 88 232 2.0 5.0 0.00 0.00 0.00 55 1023.1
20260831211319 88 232 2.0 5.0 0.00 0.00 0.00 54 1023.2
20260831211212 88 182 2.0 6.0 0.00 0.00 0.00 56 1023.1
20260831211111 88 300 2.0 8.0 0.00 0.00 0.00 54 1023.1
20260831211013 88 300 2.0 8.0 0.00 0.00 0.00 55 1023.1
20260831210911 88 295 2.0 8.0 0.00 0.00 0.00 55 1023.2
20260831210841 88 202 2.0 8.0 0.00 0.00 0.00 55 1023.1
20260831210832 88 303 2.0 8.0 0.00 0.00 0.00 55 1023.1
20260831210607 88 202 2.0 8.0 0.00 0.00 0.00 55 1023.1
20260831210557 89 313 2.0 7.0 0.00 0.00 0.00 55 1023.2
20260831210534 88 200 2.0 8.0 0.00 0.00 0.00 54 1023.2
20260831210408 88 198 2.0 8.0 0.00 0.00 0.00 55 1023.2
20260831210401 89 210 2.0 8.0 0.00 0.00 0.00 56 1023.4
20260831210356 89 248 2.0 7.0 0.00 0.00 0.00 57 1023.2
20260831210351 89 313 2.0 7.0 0.00 0.00 0.00 55 1023.2
20260831210332 88 211 2.0 8.0 0.00 0.00 0.00 55 1023.1
20260831210205 88 203 2.0 8.0 0.00 0.00 0.00 57 1023.1
20260831210200 89 218 3.0 8.0 0.00 0.00 0.00 55 1023.4
20260831210143 89 233 2.0 5.0 0.00 0.00 0.00 56 1023.2
20260831205955 89 248 2.0 7.0 0.00 0.00 0.00 56 1023.4
20260831205658 89 218 3.0 8.0 0.00 0.00 0.00 55 1023.4
20260831205653 89 218 3.0 8.0 0.00 0.00 0.00 53 1023.4
20260831205635 89 317 3.0 7.0 0.00 0.00 0.00 54 1023.2
20260831205614 89 218 3.0 8.0 0.00 0.00 0.00 54 1023.4
20260831205138 89 213 2.0 8.0 0.00 0.00 0.00 55 1023.4
20260831204958 89 210 2.0 8.0 0.00 0.00 0.00 56 1023.4
20260831204853 89 199 2.0 8.0 0.00 0.00 0.00 54 1023.4
20260831204756 89 199 2.0 8.0 0.00 0.00 0.00 56 1023.4
20260831204651 89 211 2.0 8.0 0.00 0.00 0.00 57 1023.4
20260831204552 89 192 1.0 5.0 0.00 0.00 0.00 55 1023.4
20260831204459 89 250 1.0 5.0 0.00 0.00 0.00 56 1023.4
20260831204421 89 192 2.0 6.0 0.00 0.00 0.00 55 1023.4
20260831204409 89 246 1.0 5.0 0.00 0.00 0.00 56 1023.4
20260831204149 89 198 2.0 6.0 0.00 0.00 0.00 56 1023.4
20260831204119 89 355 2.0 8.0 0.00 0.00 0.00 55 1023.4
20260831204110 89 64 2.0 6.0 0.00 0.00 0.00 55 1023.4
20260831203921 89 204 3.0 10.0 0.00 0.00 0.00 54 1023.5
20260831203911 89 355 3.0 10.0 0.00 0.00 0.00 55 1023.4
20260831203652 89 204 3.0 10.0 0.00 0.00 0.00 54 1023.4
20260831203548 89 202 3.0 10.0 0.00 0.00 0.00 54 1023.5
20260831203447 89 202 3.0 10.0 0.00 0.00 0.00 53 1023.4
20260831203354 89 212 3.0 10.0 0.00 0.00 0.00 55 1023.5
20260831203246 89 234 3.0 10.0 0.00 0.00 0.00 57 1023.4
20260831203148 89 221 3.0 10.0 0.00 0.00 0.00 56 1023.4
20260831203045 89 190 2.0 10.0 0.00 0.00 0.00 56 1023.5
20260831202954 89 196 2.0 8.0 0.00 0.00 0.00 56 1023.5
20260831202851 89 197 2.0 6.0 0.00 0.00 0.00 57 1023.5
20260831202751 89 210 2.0 6.0 0.00 0.00 0.00 58 1023.4
20260831202648 89 192 2.0 6.0 0.00 0.00 0.00 57 1023.6
20260831202548 89 200 2.0 8.0 0.00 0.00 0.00 57 1023.6
20260831202442 89 193 2.0 8.0 0.00 0.00 0.00 57 1023.6
20260831202342 89 205 3.0 8.0 0.00 0.00 0.00 57 1023.5
20260831202242 89 309 3.0 8.0 0.00 0.00 0.00 57 1023.6
20260831202144 89 309 3.0 8.0 0.00 0.00 0.00 56 1023.6
20260831202041 89 225 3.0 8.0 0.00 0.00 0.00 56 1023.5
20260831201943 89 238 3.0 8.0 0.00 0.00 0.00 55 1023.5
20260831201839 89 17 3.0 8.0 0.00 0.00 0.00 56 1023.6
20260831201738 89 205 3.0 8.0 0.00 0.00 0.00 55 1023.7
20260831201640 89 213 3.0 8.0 0.00 0.00 0.00 57 1023.6
20260831201538 89 232 3.0 7.0 0.00 0.00 0.00 58 1023.7
20260831201439 89 232 3.0 7.0 0.00 0.00 0.00 58 1023.6
20260831201341 89 203 3.0 7.0 0.00 0.00 0.00 57 1023.6
20260831201243 89 217 3.0 7.0 0.00 0.00 0.00 56 1023.6
20260831201144 89 249 3.0 7.0 0.00 0.00 0.00 57 1023.6
20260831201038 89 212 3.0 7.0 0.00 0.00 0.00 57 1023.6
20260831200941 89 207 3.0 7.0 0.00 0.00 0.00 57 1023.7
20260831200838 89 194 3.0 7.0 0.00 0.00 0.00 57 1023.6
20260831200741 89 189 3.0 7.0 0.00 0.00 0.00 57 1023.6
20260831200640 89 225 3.0 7.0 0.00 0.00 0.00 56 1023.6
20260831200607 89 202 3.0 7.0 0.00 0.00 0.00 58 1023.7
20260831200438 89 209 2.0 7.0 0.00 0.00 0.00 59 1023.7
20260831200340 88 283 2.0 7.0 0.00 0.00 0.00 57 1023.6
20260831200325 88 204 2.0 7.0 0.00 0.00 0.00 58 1023.7
20260831200310 88 234 2.0 7.0 0.00 0.00 0.00 57 1023.6
20260831200039 88 223 2.0 7.0 0.00 0.00 0.00 58 1023.6
20260831195948 88 309 2.0 7.0 0.00 0.00 0.00 58 1023.7
20260831195842 88 207 2.0 7.0 0.00 0.00 0.00 56 1023.7
20260831195741 88 281 2.0 7.0 0.00 0.00 0.00 56 1023.8
20260831195723 88 209 2.0 7.0 0.00 0.00 0.00 58 1023.9
20260831195647 88 150 2.0 7.0 0.00 0.00 0.00 57 1023.8
20260831195631 88 169 2.0 7.0 0.00 0.00 0.00 59 1023.8
20260831195620 88 209 2.0 7.0 0.00 0.00 0.00 58 1023.9
20260831195604 88 229 2.0 7.0 0.00 0.00 0.00 58 1023.9
20260831195555 88 169 2.0 7.0 0.00 0.00 0.00 59 1023.8
20260831195538 88 209 2.0 7.0 0.00 0.00 0.00 58 1023.9
20260831195518 88 224 3.0 7.0 0.00 0.00 0.00 57 1023.8
20260831195513 88 216 3.0 7.0 0.00 0.00 0.00 57 1023.9
20260831195446 88 198 3.0 7.0 0.00 0.00 0.00 57 1023.8
20260831195428 88 229 2.0 7.0 0.00 0.00 0.00 58 1023.9
20260831195407 88 198 3.0 7.0 0.00 0.00 0.00 59 1023.8
20260831195331 88 188 3.0 7.0 0.00 0.00 0.00 59 1023.9
20260831195159 88 214 2.0 7.0 0.00 0.00 0.00 59 1023.9
20260831195152 88 215 3.0 7.0 0.00 0.00 0.00 58 1023.8
20260831195125 88 208 3.0 6.0 0.00 0.00 0.00 58 1023.9
20260831195035 88 209 3.0 7.0 0.00 0.00 0.00 60 1023.8
20260831194939 88 202 3.0 7.0 0.00 0.00 0.00 59 1023.8
20260831194901 88 271 3.0 7.0 0.00 0.00 0.00 58 1023.9
20260831194842 88 290 3.0 7.0 0.00 0.00 0.00 57 1023.9
20260831194631 88 196 3.0 7.0 0.00 0.00 0.00 57 1023.9
20260831194000 88 293 2.0 7.0 0.00 0.00 0.00 58 1023.9
20260831193945 88 166 2.0 7.0 0.00 0.00 0.00 59 1023.9
20260831193845 88 293 2.0 7.0 0.00 0.00 0.00 58 1023.9
20260831193826 88 217 2.0 7.0 0.00 0.00 0.00 58 1024.0
20260831193819 88 231 2.0 7.0 0.00 0.00 0.00 57 1024.0
20260831193751 88 221 2.0 7.0 0.00 0.00 0.00 58 1024.0
20260831193722 88 268 2.0 7.0 0.00 0.00 0.00 58 1024.0
20260831193335 88 231 2.0 7.0 0.00 0.00 0.00 57 1024.0
20260831193231 88 231 2.0 7.0 0.00 0.00 0.00 57 1024.0
20260831193131 88 231 2.0 8.0 0.00 0.00 0.00 58 1024.0
20260831193034 88 199 2.0 8.0 0.00 0.00 0.00 61 1024.0
20260831192932 88 199 2.0 8.0 0.00 0.00 0.00 61 1024.0
20260831192836 88 199 3.0 8.0 0.00 0.00 0.00 59 1024.0
20260831192734 88 198 3.0 8.0 0.00 0.00 0.00 60 1024.0
20260831192716 88 188 2.0 8.0 0.00 0.00 0.00 59 1024.0
20260831192658 88 188 2.0 8.0 0.00 0.00 0.00 60 1024.0
20260831192430 88 188 3.0 8.0 0.00 0.00 0.00 59 1024.0
20260831192412 88 189 2.0 8.0 0.00 0.00 0.00 59 1024.0
20260831192406 88 192 2.0 8.0 0.00 0.00 0.00 62 1024.0
20260831192400 87 190 2.0 8.0 0.00 0.00 0.00 61 1024.0
20260831192349 88 171 2.0 8.0 0.00 0.00 0.00 60 1024.0
20260831192334 88 175 2.0 8.0 0.00 0.00 0.00 59 1024.0
20260831191832 87 337 1.0 8.0 0.00 0.00 0.00 61 1024.0
20260831191729 87 228 1.0 8.0 0.00 0.00 0.00 61 1024.0
20260831191631 87 182 1.0 8.0 0.00 0.00 0.00 61 1024.0
20260831191527 87 215 1.0 8.0 0.00 0.00 0.00 62 1024.1
20260831191429 87 301 1.0 4.0 0.00 0.00 0.00 61 1024.0
20260831191332 86 338 1.0 7.0 0.00 0.00 0.00 60 1024.0
20260831191226 87 338 2.0 7.0 0.00 0.00 0.00 58 1024.1
20260831191125 87 355 2.0 7.0 0.00 0.00 0.00 60 1024.1
20260831191054 87 259 2.0 8.0 0.00 0.00 0.00 59 1024.1
20260831191046 87 355 2.0 7.0 0.00 0.00 0.00 59 1024.1
20260831190823 87 259 3.0 8.0 0.00 0.00 0.00 58 1024.2
20260831190722 87 252 3.0 9.0 0.00 0.00 0.00 60 1024.2
20260831190619 87 268 3.0 9.0 0.00 0.00 0.00 59 1024.1
20260831190518 87 271 3.0 9.0 0.00 0.00 0.00 59 1024.1
20260831190453 87 305 3.0 9.0 0.00 0.00 0.00 59 1024.1
20260831190442 87 209 3.0 9.0 0.00 0.00 0.00 59 1024.2
20260831190207 88 250 3.0 9.0 0.00 0.00 0.00 58 1024.1
20260831190107 88 213 3.0 9.0 0.00 0.00 0.00 58 1024.1
20260831190043 88 202 3.0 9.0 0.00 0.00 0.00 60 1024.1
20260831190031 88 214 3.0 9.0 0.00 0.00 0.00 61 1024.1
20260831185807 87 198 3.0 8.0 0.00 0.00 0.00 60 1024.1
20260831185704 87 198 3.0 8.0 0.00 0.00 0.00 60 1024.1
20260831185603 87 232 3.0 8.0 0.00 0.00 0.00 61 1024.1
20260831185534 87 213 3.0 7.0 0.00 0.00 0.00 60 1024.0
20260831185523 87 187 3.0 8.0 0.00 0.00 0.00 60 1024.1
20260831185300 87 200 3.0 7.0 0.00 0.00 0.00 60 1024.1
20260831185158 87 210 2.0 7.0 0.00 0.00 0.00 60 1024.1
20260831185053 87 200 2.0 7.0 0.00 0.00 0.00 61 1024.1
20260831184954 87 178 2.0 5.0 0.00 0.00 0.00 61 1024.2
20260831184853 87 175 2.0 5.0 0.00 0.00 0.00 62 1024.2
20260831184759 87 194 2.0 5.0 0.00 0.00 0.00 60 1024.2
20260831184646 87 238 2.0 5.0 0.00 0.00 0.00 60 1024.2
20260831184549 87 245 2.0 5.0 0.00 0.00 0.00 62 1024.1
20260831184514 86 225 2.0 7.0 0.00 0.00 0.00 62 1024.1
20260831184505 87 225 2.0 5.0 0.00 0.00 0.00 63 1024.1
20260831184240 86 225 2.0 7.0 0.00 0.00 0.00 61 1024.2
20260831184136 87 307 2.0 7.0 0.00 0.00 0.00 60 1024.2
20260831184106 87 298 2.0 7.0 0.00 0.00 0.00 62 1024.2
20260831184057 87 303 3.0 7.0 0.00 0.00 0.00 59 1024.2
20260831183835 87 38 2.0 7.0 0.00 0.00 0.00 60 1024.2
20260831183801 87 250 2.0 7.0 0.00 0.00 0.00 63 1024.2
20260831183751 87 5 2.0 7.0 0.00 0.00 0.00 61 1024.2
20260831183531 87 292 2.0 7.0 0.00 0.00 0.00 63 1024.2
20260831183429 87 296 3.0 7.0 0.00 0.00 0.00 62 1024.2
20260831183327 87 256 2.0 6.0 0.00 0.00 0.00 61 1024.2
20260831183228 87 202 2.0 6.0 0.00 0.00 0.00 60 1024.1
20260831183122 87 207 2.0 6.0 0.00 0.00 0.00 60 1024.2
20260831183049 87 106 2.0 6.0 0.00 0.00 0.00 60 1024.2
20260831183039 87 225 2.0 6.0 0.00 0.00 0.00 61 1024.1
20260831182819 87 106 2.0 6.0 0.00 0.00 0.00 62 1024.2
20260831182719 87 183 2.0 6.0 0.00 0.00 0.00 62 1024.2
20260831182614 87 182 2.0 6.0 0.00 0.00 0.00 61 1024.3
20260831182511 87 194 2.0 6.0 0.00 0.00 0.00 61 1024.4
20260831182446 87 212 2.0 7.0 0.00 0.00 0.00 63 1024.5
20260831182433 87 200 2.0 4.0 0.00 0.00 0.00 62 1024.4
20260831182216 87 214 2.0 7.0 0.00 0.00 0.00 62 1024.4
20260831182111 87 246 2.0 7.0 0.00 0.00 0.00 60 1024.5
20260831182007 87 232 2.0 7.0 0.00 0.00 0.00 63 1024.5
20260831181907 87 213 2.0 7.0 0.00 0.00 0.00 63 1024.5
20260831181810 86 175 3.0 8.0 0.00 0.00 0.00 63 1024.4
20260831181708 86 181 3.0 8.0 0.00 0.00 0.00 63 1024.4
20260831181554 86 164 3.0 8.0 0.00 0.00 0.00 63 1024.5
20260831181454 86 162 3.0 8.0 0.00 0.00 0.00 62 1024.4
20260831181354 86 161 3.0 8.0 0.00 0.00 0.00 62 1024.4
20260831181253 86 188 3.0 9.0 0.00 0.00 0.00 63 1024.5
20260831181227 86 182 3.0 9.0 0.00 0.00 0.00 61 1024.6
20260831181215 86 184 3.0 9.0 0.00 0.00 0.00 64 1024.6
20260831180945 86 237 3.0 9.0 0.00 0.00 0.00 62 1024.6
20260831180847 86 205 3.0 9.0 0.00 0.00 0.00 64 1024.5
20260831180746 86 202 3.0 9.0 0.00 0.00 0.00 63 1024.6
20260831180723 86 172 3.0 9.0 0.00 0.00 0.00 63 1024.6
20260831180710 86 175 2.0 9.0 0.00 0.00 0.00 63 1024.6
20260831180443 86 172 2.0 9.0 0.00 0.00 0.00 63 1024.7
20260831180414 86 211 2.0 8.0 0.00 0.00 0.00 64 1024.7
20260831180403 86 193 2.0 8.0 0.00 0.00 0.00 64 1024.6
20260831180140 86 188 2.0 7.0 0.00 0.00 0.00 64 1024.7
20260831180035 86 188 2.0 7.0 0.00 0.00 0.00 63 1024.6
20260831175935 86 189 2.0 7.0 0.00 0.00 0.00 64 1024.6
20260831175832 86 217 2.0 9.0 0.00 0.00 0.00 64 1024.7
20260831175732 86 229 3.0 11.0 0.00 0.00 0.00 65 1024.7
20260831175700 85 200 3.0 11.0 0.00 0.00 0.00 64 1024.7
20260831175650 86 223 3.0 11.0 0.00 0.00 0.00 64 1024.7
20260831175455 86 195 3.0 11.0 0.00 0.00 0.00 63 1024.7
20260831175445 85 196 3.0 11.0 0.00 0.00 0.00 64 1024.7
20260831175227 86 195 4.0 11.0 0.00 0.00 0.00 64 1024.8
20260831175124 86 226 4.0 11.0 0.00 0.00 0.00 65 1024.7
20260831175021 85 207 4.0 11.0 0.00 0.00 0.00 65 1024.7
20260831174919 85 252 3.0 11.0 0.00 0.00 0.00 65 1024.7
20260831174819 85 198 3.0 9.0 0.00 0.00 0.00 65 1024.7
20260831174718 85 190 3.0 9.0 0.00 0.00 0.00 65 1024.7
20260831174629 85 236 3.0 9.0 0.00 0.00 0.00 65 1024.6
20260831174507 85 235 3.0 9.0 0.00 0.00 0.00 65 1024.6
20260831174403 85 200 3.0 9.0 0.00 0.00 0.00 66 1024.6
20260831174305 85 223 3.0 9.0 0.00 0.00 0.00 65 1024.7
20260831174203 85 196 3.0 9.0 0.00 0.00 0.00 65 1024.6
20260831174105 85 208 3.0 9.0 0.00 0.00 0.00 65 1024.7
20260831174037 85 285 3.0 9.0 0.00 0.00 0.00 64 1024.7
20260831174024 85 285 3.0 9.0 0.00 0.00 0.00 64 1024.7
20260831173759 85 234 3.0 9.0 0.00 0.00 0.00 63 1024.7
20260831173658 85 247 3.0 9.0 0.00 0.00 0.00 63 1024.7
20260831173558 85 245 2.0 9.0 0.00 0.00 0.00 63 1024.7
20260831173458 85 251 2.0 8.0 0.00 0.00 0.00 63 1024.8
20260831173357 85 218 2.0 8.0 0.00 0.00 0.00 63 1024.8
20260831173255 85 215 2.0 6.0 0.00 0.00 0.00 63 1024.8
20260831173154 85 232 3.0 8.0 0.00 0.00 0.00 62 1024.8
20260831173053 85 170 3.0 8.0 0.00 0.00 0.00 62 1024.8
20260831172946 85 170 3.0 8.0 0.00 0.00 0.00 62 1024.9
20260831172841 85 170 3.0 8.0 0.00 0.00 0.00 63 1024.9
20260831172743 85 170 3.0 8.0 0.00 0.00 0.00 64 1024.9
20260831172641 85 184 3.0 8.0 0.00 0.00 0.00 65 1025.1
20260831172542 85 130 3.0 8.0 0.00 0.00 0.00 65 1025.1
20260831172437 85 195 3.0 8.0 0.00 0.00 0.00 64 1025.1
20260831172337 85 219 4.0 8.0 0.00 0.00 0.00 66 1025.1
20260831172236 85 228 3.0 8.0 0.00 0.00 0.00 66 1025.1
20260831172135 84 222 3.0 8.0 0.00 0.00 0.00 66 1025.1
20260831172036 84 204 3.0 8.0 0.00 0.00 0.00 65 1025.2
20260831172008 84 285 3.0 8.0 0.00 0.00 0.00 62 1024.9
20260831172000 84 246 3.0 8.0 0.00 0.00 0.00 64 1025.1
20260831171944 84 231 3.0 8.0 0.00 0.00 0.00 64 1024.9
20260831171920 84 173 3.0 8.0 0.00 0.00 0.00 63 1024.9
20260831171530 84 209 3.0 8.0 0.00 0.00 0.00 67 1025.1
20260831171421 84 216 3.0 8.0 0.00 0.00 0.00 66 1025.1
20260831171322 84 196 3.0 6.0 0.00 0.00 0.00 65 1025.1
20260831171219 83 288 2.0 6.0 0.00 0.00 0.00 67 1025.1
20260831171121 83 258 2.0 6.0 0.00 0.00 0.00 68 1025.1
20260831171021 83 271 2.0 6.0 0.00 0.00 0.00 66 1025.1
20260831170919 83 273 2.0 6.0 0.00 0.00 0.00 67 1025.2
20260831170818 83 278 3.0 8.0 0.00 0.00 0.00 69 1025.2
20260831170722 83 235 3.0 8.0 0.00 0.00 0.00 70 1025.2
20260831170617 83 198 3.0 8.0 0.00 0.00 0.00 70 1025.3
20260831170514 83 225 3.0 8.0 0.00 0.00 0.00 70 1025.2
20260831170409 83 250 3.0 8.0 0.00 0.00 0.00 70 1025.2
20260831170309 83 275 3.0 8.0 0.00 0.00 0.00 70 1025.2
20260831170209 83 275 3.0 8.0 0.00 0.00 0.00 68 1025.2
20260831170109 83 275 3.0 8.0 0.00 0.00 0.00 68 1025.2
20260831170007 83 211 3.0 8.0 0.00 0.00 0.00 68 1025.3
20260831165857 83 258 3.0 8.0 0.00 0.00 0.00 69 1025.3
20260831165758 83 200 3.0 7.0 0.00 0.00 0.00 68 1025.3
20260831165656 83 199 3.0 7.0 0.00 0.00 0.00 68 1025.3
20260831165556 83 217 3.0 6.0 0.00 0.00 0.00 68 1025.3
20260831165455 83 206 2.0 8.0 0.00 0.00 0.00 69 1025.3
20260831165355 83 141 2.0 8.0 0.00 0.00 0.00 70 1025.3
20260831165256 83 229 3.0 8.0 0.00 0.00 0.00 71 1025.4
20260831165156 83 229 3.0 8.0 0.00 0.00 0.00 71 1025.3
20260831165053 83 277 3.0 8.0 0.00 0.00 0.00 70 1025.3
20260831164954 83 196 3.0 8.0 0.00 0.00 0.00 70 1025.3
20260831164853 82 233 3.0 8.0 0.00 0.00 0.00 70 1025.4
20260831164806 83 205 2.0 8.0 0.00 0.00 0.00 70 1025.4
20260831164757 82 206 3.0 8.0 0.00 0.00 0.00 69 1025.4
20260831164750 83 204 2.0 6.0 0.00 0.00 0.00 69 1025.4
20260831164730 82 188 2.0 8.0 0.00 0.00 0.00 69 1025.3
20260831164441 83 223 2.0 6.0 0.00 0.00 0.00 69 1025.4
20260831164435 84 228 2.0 6.0 0.00 0.00 0.00 68 1025.4
20260831164431 84 236 2.0 6.0 0.00 0.00 0.00 69 1025.4
20260831164419 83 219 2.0 6.0 0.00 0.00 0.00 69 1025.4
20260831164230 83 206 2.0 6.0 0.00 0.00 0.00 69 1025.4
20260831163848 84 191 2.0 6.0 0.00 0.00 0.00 68 1025.4
20260831163745 84 304 2.0 8.0 0.00 0.00 0.00 68 1025.3
20260831163710 84 236 2.0 8.0 0.00 0.00 0.00 69 1025.4
20260831163701 84 250 2.0 8.0 0.00 0.00 0.00 68 1025.4
20260831163442 84 246 2.0 8.0 0.00 0.00 0.00 69 1025.4
20260831163417 84 205 3.0 8.0 0.00 0.00 0.00 70 1025.4
20260831163406 84 246 3.0 8.0 0.00 0.00 0.00 68 1025.4
20260831163133 84 205 3.0 8.0 0.00 0.00 0.00 70 1025.4
20260831163122 84 248 3.0 8.0 0.00 0.00 0.00 69 1025.4
20260831163116 83 199 2.0 8.0 0.00 0.00 0.00 69 1025.4
20260831163110 83 176 2.0 8.0 0.00 0.00 0.00 70 1025.4
20260831163100 84 192 2.0 8.0 0.00 0.00 0.00 70 1025.4
20260831162911 84 162 2.0 8.0 0.00 0.00 0.00 70 1025.4
20260831162523 83 188 2.0 7.0 0.00 0.00 0.00 70 1025.4
20260831162425 83 269 2.0 7.0 0.00 0.00 0.00 69 1025.4
20260831162325 83 197 2.0 7.0 0.00 0.00 0.00 71 1025.4
20260831162224 83 175 2.0 7.0 0.00 0.00 0.00 73 1025.4
20260831162117 82 175 2.0 7.0 0.00 0.00 0.00 74 1025.4
20260831162055 82 173 2.0 7.0 0.00 0.00 0.00 73 1025.4
20260831162044 82 174 2.0 7.0 0.00 0.00 0.00 73 1025.4
20260831161818 82 173 2.0 7.0 0.00 0.00 0.00 74 1025.4
20260831161718 81 295 2.0 7.0 0.00 0.00 0.00 73 1025.4
20260831161615 81 294 2.0 7.0 0.00 0.00 0.00 71 1025.4
20260831161551 81 296 2.0 7.0 0.00 0.00 0.00 74 1025.4
20260831161540 81 301 2.0 7.0 0.00 0.00 0.00 70 1025.4
20260831161349 81 208 2.0 7.0 0.00 0.00 0.00 75 1025.3
20260831161338 81 213 2.0 7.0 0.00 0.00 0.00 74 1025.4
20260831161114 81 194 2.0 7.0 0.00 0.00 0.00 75 1025.4
20260831161013 80 233 2.0 7.0 0.00 0.00 0.00 74 1025.4
20260831160811 80 213 3.0 9.0 0.00 0.00 0.00 74 1025.4
20260831160712 80 213 3.0 9.0 0.00 0.00 0.00 73 1025.4
20260831160608 81 213 3.0 9.0 0.00 0.00 0.00 72 1025.4
20260831160540 81 198 3.0 9.0 0.00 0.00 0.00 73 1025.4
20260831160530 81 213 3.0 9.0 0.00 0.00 0.00 72 1025.4
20260831160307 81 205 3.0 9.0 0.00 0.00 0.00 73 1025.5
20260831160208 81 198 3.0 9.0 0.00 0.00 0.00 74 1025.4
20260831160108 81 214 3.0 9.0 0.00 0.00 0.00 75 1025.4
20260831160004 81 191 2.0 9.0 0.00 0.00 0.00 75 1025.4
20260831155906 80 302 2.0 9.0 0.00 0.00 0.00 74 1025.4
20260831155807 80 288 2.0 9.0 0.00 0.00 0.00 75 1025.4
20260831155705 80 230 2.0 7.0 0.00 0.00 0.00 76 1025.4
20260831155605 80 240 2.0 7.0 0.00 0.00 0.00 76 1025.4
20260831155511 80 307 2.0 6.0 0.00 0.00 0.00 76 1025.4
20260831155406 80 209 2.0 10.0 0.00 0.00 0.00 77 1025.4
20260831155306 80 189 2.0 10.0 0.00 0.00 0.00 77 1025.4
20260831155206 80 180 3.0 10.0 0.00 0.00 0.00 76 1025.4
20260831155102 80 163 3.0 10.0 0.00 0.00 0.00 76 1025.4
20260831155003 80 163 3.0 10.0 0.00 0.00 0.00 75 1025.5
20260831154932 80 206 4.0 10.0 0.00 0.00 0.00 75 1025.4
20260831154921 80 206 4.0 10.0 0.00 0.00 0.00 75 1025.4
20260831154701 80 192 4.0 10.0 0.00 0.00 0.00 75 1025.4
20260831154601 80 250 4.0 10.0 0.00 0.00 0.00 76 1025.4
20260831154500 80 198 4.0 10.0 0.00 0.00 0.00 75 1025.4
20260831154401 80 220 4.0 9.0 0.00 0.00 0.00 75 1025.4
20260831154302 80 205 3.0 9.0 0.00 0.00 0.00 75 1025.4
20260831154156 80 190 3.0 9.0 0.00 0.00 0.00 75 1025.4
20260831154056 80 205 3.0 9.0 0.00 0.00 0.00 76 1025.4
20260831153958 80 215 3.0 9.0 0.00 0.00 0.00 77 1025.4
20260831153856 80 217 3.0 7.0 0.00 0.00 0.00 77 1025.3
20260831153756 80 134 3.0 7.0 0.00 0.00 0.00 77 1025.3
20260831153658 80 223 3.0 7.0 0.00 0.00 0.00 78 1025.4
20260831153555 80 252 3.0 7.0 0.00 0.00 0.00 78 1025.4
20260831153459 80 207 3.0 7.0 0.00 0.00 0.00 77 1025.3
20260831153355 79 252 2.0 7.0 0.00 0.00 0.00 77 1025.3
20260831153256 79 193 2.0 7.0 0.00 0.00 0.00 77 1025.3
20260831153226 79 202 2.0 7.0 0.00 0.00 0.00 77 1025.3
20260831153215 79 217 2.0 7.0 0.00 0.00 0.00 77 1025.3
20260831152955 79 209 2.0 7.0 0.00 0.00 0.00 77 1025.3
20260831152857 79 207 2.0 7.0 0.00 0.00 0.00 77 1025.3
20260831152757 79 214 2.0 7.0 0.00 0.00 0.00 79 1025.3
20260831152655 79 178 2.0 7.0 0.00 0.00 0.00 79 1025.3
20260831152555 79 165 2.0 6.0 0.00 0.00 0.00 79 1025.3
20260831152454 79 203 2.0 6.0 0.00 0.00 0.00 79 1025.3
20260831152357 79 239 2.0 5.0 0.00 0.00 0.00 79 1025.2
20260831152257 79 161 2.0 5.0 0.00 0.00 0.00 79 1025.3
20260831152200 79 161 2.0 5.0 0.00 0.00 0.00 79 1025.2
20260831152114 78 242 2.0 8.0 0.00 0.00 0.00 79 1025.2
20260831152058 79 218 2.0 5.0 0.00 0.00 0.00 79 1025.2
20260831152037 79 220 2.0 6.0 0.00 0.00 0.00 80 1025.2
20260831151914 78 231 2.0 8.0 0.00 0.00 0.00 79 1025.2
20260831151650 78 240 2.0 8.0 0.00 0.00 0.00 79 1025.1
20260831151549 78 217 3.0 8.0 0.00 0.00 0.00 79 1025.2
20260831151455 78 217 3.0 8.0 0.00 0.00 0.00 80 1025.1
20260831151349 78 178 2.0 8.0 0.00 0.00 0.00 80 1025.2
20260831151249 78 188 2.0 8.0 0.00 0.00 0.00 81 1025.1
20260831151149 78 194 2.0 8.0 0.00 0.00 0.00 79 1025.1
20260831151132 78 196 2.0 8.0 0.00 0.00 0.00 80 1025.2
20260831151116 78 194 2.0 8.0 0.00 0.00 0.00 80 1025.1
20260831150849 78 274 2.0 7.0 0.00 0.00 0.00 80 1025.2
20260831150748 78 274 3.0 7.0 0.00 0.00 0.00 80 1025.2
20260831150647 78 232 3.0 7.0 0.00 0.00 0.00 80 1025.1
20260831150545 78 224 3.0 7.0 0.00 0.00 0.00 80 1025.2
20260831150517 77 286 3.0 7.0 0.00 0.00 0.00 81 1025.1
20260831150512 77 193 3.0 7.0 0.00 0.00 0.00 82 1025.2
20260831150508 78 214 3.0 7.0 0.00 0.00 0.00 81 1025.1
20260831150455 78 230 3.0 7.0 0.00 0.00 0.00 80 1025.2
20260831150430 78 182 3.0 7.0 0.00 0.00 0.00 81 1025.2
20260831150316 77 191 3.0 7.0 0.00 0.00 0.00 81 1025.2
20260831150306 78 179 3.0 7.0 0.00 0.00 0.00 81 1025.2
20260831150122 77 204 3.0 7.0 0.00 0.00 0.00 81 1025.2
20260831145815 77 158 3.0 7.0 0.00 0.00 0.00 81 1025.2
20260831145651 77 223 3.0 7.0 0.00 0.00 0.00 82 1025.1
20260831145427 77 228 3.0 7.0 0.00 0.00 0.00 81 1025.1
20260831145328 77 223 3.0 7.0 0.00 0.00 0.00 81 1025.1
20260831145226 77 198 3.0 7.0 0.00 0.00 0.00 81 1025.1
20260831145126 77 192 3.0 7.0 0.00 0.00 0.00 82 1025.1
20260831145028 77 219 3.0 7.0 0.00 0.00 0.00 82 1025.2
20260831144924 77 218 3.0 7.0 0.00 0.00 0.00 82 1025.1
20260831144822 77 231 3.0 7.0 0.00 0.00 0.00 83 1025.1
20260831144718 76 181 3.0 7.0 0.00 0.00 0.00 83 1025.1
20260831144616 76 201 3.0 7.0 0.00 0.00 0.00 83 1024.9
20260831144605 76 201 3.0 8.0 0.00 0.00 0.00 83 1025.1
20260831144548 76 200 3.0 7.0 0.00 0.00 0.00 83 1025.1
20260831144324 76 243 3.0 8.0 0.00 0.00 0.00 83 1025.1
20260831144113 76 241 3.0 8.0 0.00 0.00 0.00 83 1024.9
20260831144041 76 228 3.0 8.0 0.00 0.00 0.00 83 1024.9
20260831144032 76 209 3.0 8.0 0.00 0.00 0.00 83 1024.9
20260831143808 76 236 3.0 8.0 0.00 0.00 0.00 83 1025.1
20260831143723 76 196 3.0 6.0 0.00 0.00 0.00 84 1024.9
20260831143709 76 214 3.0 8.0 0.00 0.00 0.00 83 1024.9
20260831143650 76 219 3.0 8.0 0.00 0.00 0.00 84 1024.9
20260831143456 76 221 2.0 7.0 0.00 0.00 0.00 84 1024.9
20260831143443 76 195 3.0 7.0 0.00 0.00 0.00 84 1024.9
20260831143206 76 162 3.0 7.0 0.00 0.00 0.00 84 1024.9
20260831143109 76 190 3.0 7.0 0.00 0.00 0.00 84 1024.8
20260831143008 76 190 3.0 7.0 0.00 0.00 0.00 84 1024.8
20260831142944 75 232 3.0 7.0 0.00 0.00 0.00 84 1024.8
20260831142933 76 181 3.0 7.0 0.00 0.00 0.00 84 1024.8
20260831142708 75 232 3.0 7.0 0.00 0.00 0.00 84 1024.8
20260831142609 75 192 3.0 7.0 0.00 0.00 0.00 84 1024.7
20260831142522 75 188 3.0 7.0 0.00 0.00 0.00 84 1024.8
20260831142506 75 192 3.0 7.0 0.00 0.00 0.00 84 1024.8
20260831142441 75 220 3.0 7.0 0.00 0.00 0.00 84 1024.7
20260831142207 75 227 3.0 7.0 0.00 0.00 0.00 84 1024.8
20260831142105 75 192 3.0 7.0 0.00 0.00 0.00 84 1024.8
20260831142002 75 196 3.0 7.0 0.00 0.00 0.00 84 1024.7
20260831141905 75 184 3.0 7.0 0.00 0.00 0.00 84 1024.7
20260831141831 75 232 3.0 7.0 0.00 0.00 0.00 84 1024.8
20260831141701 75 206 3.0 6.0 0.00 0.00 0.00 84 1024.8
20260831141559 75 221 3.0 6.0 0.00 0.00 0.00 84 1024.7
20260831141502 75 205 3.0 6.0 0.00 0.00 0.00 84 1024.8
20260831141400 75 211 3.0 6.0 0.00 0.00 0.00 84 1024.7
20260831141302 75 189 3.0 6.0 0.00 0.00 0.00 84 1024.7
20260831141204 75 257 3.0 6.0 0.00 0.00 0.00 84 1024.8
20260831141056 75 222 3.0 6.0 0.00 0.00 0.00 84 1024.8
20260831140959 75 198 3.0 6.0 0.00 0.00 0.00 84 1024.8
20260831140858 75 211 3.0 7.0 0.00 0.00 0.00 84 1024.7
20260831140755 74 230 3.0 7.0 0.00 0.00 0.00 84 1024.7
20260831140654 74 211 3.0 7.0 0.00 0.00 0.00 84 1024.8
20260831140554 74 205 3.0 9.0 0.00 0.00 0.00 85 1024.7
20260831140456 74 178 3.0 9.0 0.00 0.00 0.00 85 1024.7
20260831140355 74 182 3.0 9.0 0.00 0.00 0.00 84 1024.7
20260831140255 74 182 3.0 9.0 0.00 0.00 0.00 84 1024.8
20260831140154 74 212 3.0 9.0 0.00 0.00 0.00 85 1024.7
20260831140101 74 217 3.0 9.0 0.00 0.00 0.00 85 1024.7
20260831135955 74 263 3.0 9.0 0.00 0.00 0.00 85 1024.7
20260831135856 74 207 3.0 9.0 0.00 0.00 0.00 85 1024.8
20260831135755 74 219 3.0 9.0 0.00 0.00 0.00 84 1024.7
20260831135732 74 157 3.0 8.0 0.00 0.00 0.00 85 1024.7
20260831135719 74 186 3.0 9.0 0.00 0.00 0.00 85 1024.7
20260831135454 74 202 3.0 8.0 0.00 0.00 0.00 85 1024.8
20260831135354 74 211 3.0 8.0 0.00 0.00 0.00 85 1024.7
20260831135253 74 202 3.0 8.0 0.00 0.00 0.00 85 1024.8
20260831135150 74 167 3.0 8.0 0.00 0.00 0.00 85 1024.7
20260831135045 74 184 3.0 7.0 0.00 0.00 0.00 85 1024.7
20260831134947 74 180 3.0 7.0 0.00 0.00 0.00 84 1024.7
20260831134845 74 171 3.0 7.0 0.00 0.00 0.00 84 1024.7
20260831134742 74 214 3.0 7.0 0.00 0.00 0.00 84 1024.8
20260831134644 74 214 3.0 7.0 0.00 0.00 0.00 84 1024.8
20260831134544 74 216 3.0 7.0 0.00 0.00 0.00 84 1024.8
20260831134441 74 205 3.0 5.0 0.00 0.00 0.00 84 1024.8
20260831134342 74 232 3.0 6.0 0.00 0.00 0.00 84 1024.8
20260831134240 74 210 3.0 6.0 0.00 0.00 0.00 84 1024.7
20260831134138 74 214 3.0 6.0 0.00 0.00 0.00 84 1024.8
20260831134035 74 228 3.0 6.0 0.00 0.00 0.00 84 1024.8
20260831133933 74 191 3.0 6.0 0.00 0.00 0.00 84 1024.8
20260831133830 74 204 3.0 6.0 0.00 0.00 0.00 84 1024.8
20260831133731 74 209 3.0 6.0 0.00 0.00 0.00 84 1024.8
20260831133633 74 193 3.0 6.0 0.00 0.00 0.00 84 1024.8
20260831133530 74 192 3.0 6.0 0.00 0.00 0.00 84 1024.7
20260831133432 74 220 3.0 8.0 0.00 0.00 0.00 84 1024.7
20260831133332 74 220 3.0 8.0 0.00 0.00 0.00 84 1024.8
20260831133257 74 195 3.0 8.0 0.00 0.00 0.00 84 1024.8
20260831133248 74 170 3.0 8.0 0.00 0.00 0.00 84 1024.7
20260831133232 74 196 3.0 8.0 0.00 0.00 0.00 84 1024.7
20260831133056 74 195 3.0 8.0 0.00 0.00 0.00 84 1024.7
20260831132829 74 186 3.0 8.0 0.00 0.00 0.00 84 1024.8
20260831132726 74 210 3.0 8.0 0.00 0.00 0.00 84 1024.7
20260831132626 74 184 3.0 8.0 0.00 0.00 0.00 84 1024.7
20260831132528 74 182 3.0 8.0 0.00 0.00 0.00 84 1024.7
20260831132429 74 255 3.0 7.0 0.00 0.00 0.00 84 1024.8
20260831132326 74 207 3.0 7.0 0.00 0.00 0.00 84 1024.8
20260831132228 74 184 3.0 7.0 0.00 0.00 0.00 84 1024.7
20260831132125 74 226 3.0 7.0 0.00 0.00 0.00 84 1024.7
20260831132026 74 221 2.0 7.0 0.00 0.00 0.00 84 1024.7
20260831131925 74 219 2.0 7.0 0.00 0.00 0.00 84 1024.6
20260831131823 74 121 2.0 7.0 0.00 0.00 0.00 84 1024.7
20260831131724 74 120 2.0 7.0 0.00 0.00 0.00 84 1024.7
20260831131625 74 236 2.0 7.0 0.00 0.00 0.00 84 1024.7
20260831131553 74 191 3.0 7.0 0.00 0.00 0.00 84 1024.6
20260831131547 74 186 2.0 7.0 0.00 0.00 0.00 84 1024.7
20260831131543 74 192 2.0 7.0 0.00 0.00 0.00 84 1024.6
20260831131532 74 189 2.0 7.0 0.00 0.00 0.00 84 1024.7
20260831131511 74 203 2.0 7.0 0.00 0.00 0.00 84 1024.7
20260831131457 74 215 2.0 7.0 0.00 0.00 0.00 84 1024.7
20260831131053 74 253 3.0 7.0 0.00 0.00 0.00 84 1024.6
20260831131047 74 189 3.0 7.0 0.00 0.00 0.00 84 1024.6
20260831131032 74 189 2.0 7.0 0.00 0.00 0.00 84 1024.6
20260831131014 74 186 3.0 7.0 0.00 0.00 0.00 84 1024.7
20260831130538 73 186 3.0 7.0 0.00 0.00 0.00 84 1024.6
20260831130532 73 190 3.0 7.0 0.00 0.00 0.00 84 1024.6
20260831130521 73 177 3.0 7.0 0.00 0.00 0.00 84 1024.6
20260831130454 73 185 3.0 7.0 0.00 0.00 0.00 84 1024.6
20260831130113 73 185 3.0 7.0 0.00 0.00 0.00 84 1024.5
20260831130051 73 196 3.0 7.0 0.00 0.00 0.00 84 1024.4
20260831130038 73 192 3.0 7.0 0.00 0.00 0.00 84 1024.5
20260831125836 73 227 2.0 6.0 0.00 0.00 0.00 84 1024.4
20260831125831 73 194 2.0 6.0 0.00 0.00 0.00 84 1024.4
20260831125820 73 166 2.0 7.0 0.00 0.00 0.00 84 1024.4
20260831125757 73 214 2.0 6.0 0.00 0.00 0.00 84 1024.4
20260831125438 73 202 2.0 6.0 0.00 0.00 0.00 84 1024.4
20260831125314 73 223 2.0 6.0 0.00 0.00 0.00 84 1024.4
20260831125214 73 229 2.0 6.0 0.00 0.00 0.00 84 1024.4
20260831125113 73 144 2.0 6.0 0.00 0.00 0.00 84 1024.4
20260831125015 73 184 2.0 6.0 0.00 0.00 0.00 84 1024.4
20260831124948 73 213 3.0 7.0 0.00 0.00 0.00 84 1024.4
20260831124936 73 213 3.0 6.0 0.00 0.00 0.00 84 1024.4
20260831124713 73 212 3.0 7.0 0.00 0.00 0.00 84 1024.4
20260831124615 73 212 2.0 7.0 0.00 0.00 0.00 84 1024.4
20260831124512 73 171 2.0 7.0 0.00 0.00 0.00 84 1024.4
20260831124413 73 182 2.0 7.0 0.00 0.00 0.00 84 1024.3
20260831124336 73 238 2.0 7.0 0.00 0.00 0.00 84 1024.3
20260831124321 73 221 2.0 7.0 0.00 0.00 0.00 84 1024.3
20260831124259 73 229 2.0 7.0 0.00 0.00 0.00 84 1024.3
20260831124135 73 230 2.0 7.0 0.00 0.00 0.00 84 1024.3
20260831123914 73 238 2.0 7.0 0.00 0.00 0.00 84 1024.3
20260831123809 73 233 2.0 6.0 0.00 0.00 0.00 84 1024.3
20260831123710 73 202 2.0 6.0 0.00 0.00 0.00 84 1024.3
20260831123610 73 232 2.0 6.0 0.00 0.00 0.00 84 1024.2
20260831123508 73 196 2.0 6.0 0.00 0.00 0.00 84 1024.3
20260831123410 73 238 2.0 5.0 0.00 0.00 0.00 84 1024.3
20260831123310 73 197 2.0 5.0 0.00 0.00 0.00 84 1024.3
20260831123210 73 197 2.0 5.0 0.00 0.00 0.00 84 1024.3
20260831123109 73 218 2.0 7.0 0.00 0.00 0.00 84 1024.3
20260831123009 73 201 2.0 7.0 0.00 0.00 0.00 84 1024.3
20260831122914 73 201 2.0 7.0 0.00 0.00 0.00 84 1024.2
20260831122845 73 192 2.0 7.0 0.00 0.00 0.00 84 1024.3
20260831122836 73 223 2.0 7.0 0.00 0.00 0.00 84 1024.3
20260831122610 73 205 2.0 7.0 0.00 0.00 0.00 84 1024.2
20260831122543 73 209 2.0 7.0 0.00 0.00 0.00 84 1024.2
20260831122532 73 204 2.0 7.0 0.00 0.00 0.00 84 1024.3
20260831122309 73 223 2.0 7.0 0.00 0.00 0.00 84 1024.2
20260831122241 73 192 2.0 7.0 0.00 0.00 0.00 84 1024.2
20260831122229 73 209 2.0 7.0 0.00 0.00 0.00 84 1024.1
20260831122008 73 216 2.0 7.0 0.00 0.00 0.00 84 1024.1
20260831121910 73 217 2.0 7.0 0.00 0.00 0.00 84 1024.1
20260831121810 73 199 2.0 7.0 0.00 0.00 0.00 84 1024.0
20260831121710 73 219 2.0 7.0 0.00 0.00 0.00 84 1024.0
20260831121609 73 219 2.0 7.0 0.00 0.00 0.00 84 1024.1
20260831121508 73 219 2.0 7.0 0.00 0.00 0.00 84 1024.1
20260831121410 73 213 2.0 7.0 0.00 0.00 0.00 84 1024.1
20260831121315 73 189 2.0 7.0 0.00 0.00 0.00 84 1024.1
20260831121209 73 225 2.0 7.0 0.00 0.00 0.00 84 1024.1
20260831121108 73 248 2.0 6.0 0.00 0.00 0.00 84 1024.1
20260831121008 73 209 2.0 6.0 0.00 0.00 0.00 84 1024.0
20260831120910 73 206 2.0 6.0 0.00 0.00 0.00 84 1024.0
20260831120809 73 192 2.0 5.0 0.00 0.00 0.00 84 1024.1
20260831120709 73 192 2.0 5.0 0.00 0.00 0.00 84 1024.1
20260831120642 73 207 2.0 5.0 0.00 0.00 0.00 84 1024.0
20260831120630 73 207 2.0 5.0 0.00 0.00 0.00 84 1024.1
20260831120408 73 185 2.0 5.0 0.00 0.00 0.00 84 1024.0
20260831120309 73 185 2.0 5.0 0.00 0.00 0.00 84 1024.0
20260831120208 73 199 2.0 5.0 0.00 0.00 0.00 84 1024.0
20260831120107 73 218 2.0 5.0 0.00 0.00 0.00 83 1024.0
20260831120010 73 222 2.0 5.0 0.00 0.00 0.00 84 1024.0
20260831115939 73 236 2.0 5.0 0.00 0.00 0.00 83 1023.9
20260831115924 73 203 2.0 5.0 0.00 0.00 0.00 84 1023.9
20260831115709 73 182 2.0 5.0 0.00 0.00 0.00 83 1023.9
20260831115658 73 206 2.0 4.0 0.00 0.00 0.00 83 1023.9
20260831115652 73 227 2.0 5.0 0.00 0.00 0.00 83 1023.9
20260831115645 73 210 2.0 5.0 0.00 0.00 0.00 83 1023.9
20260831115639 73 211 2.0 4.0 0.00 0.00 0.00 83 1023.9
20260831115628 73 182 2.0 5.0 0.00 0.00 0.00 83 1023.9
20260831115604 73 227 2.0 5.0 0.00 0.00 0.00 83 1023.9
20260831115314 73 218 2.0 5.0 0.00 0.00 0.00 83 1023.9
20260831115254 73 218 2.0 5.0 0.00 0.00 0.00 83 1023.9
20260831114818 73 227 2.0 4.0 0.00 0.00 0.00 83 1023.8
20260831114807 73 268 2.0 4.0 0.00 0.00 0.00 83 1023.9
20260831114548 73 227 2.0 4.0 0.00 0.00 0.00 83 1023.8
20260831114520 73 220 2.0 5.0 0.00 0.00 0.00 83 1023.8
20260831114506 73 220 2.0 5.0 0.00 0.00 0.00 83 1023.9
20260831114238 73 220 2.0 5.0 0.00 0.00 0.00 83 1023.9
20260831114212 73 220 2.0 5.0 0.00 0.00 0.00 83 1023.8
20260831114200 73 220 2.0 5.0 0.00 0.00 0.00 83 1023.9
20260831113940 73 200 2.0 7.0 0.00 0.00 0.00 83 1023.9
20260831113843 73 196 2.0 7.0 0.00 0.00 0.00 83 1023.9
20260831113734 73 196 2.0 7.0 0.00 0.00 0.00 83 1023.8
20260831113634 73 204 2.0 7.0 0.00 0.00 0.00 83 1023.8
20260831113534 73 213 2.0 7.0 0.00 0.00 0.00 83 1023.7
20260831113432 73 221 2.0 7.0 0.00 0.00 0.00 83 1023.8
20260831113333 73 218 2.0 7.0 0.00 0.00 0.00 83 1023.8
20260831113234 73 188 2.0 7.0 0.00 0.00 0.00 83 1023.8
20260831113133 73 197 2.0 7.0 0.00 0.00 0.00 83 1023.8
20260831113034 73 209 2.0 6.0 0.00 0.00 0.00 83 1023.8
20260831112932 73 250 2.0 4.0 0.00 0.00 0.00 83 1023.7
20260831112830 73 186 2.0 4.0 0.00 0.00 0.00 83 1023.8
20260831112729 73 185 2.0 4.0 0.00 0.00 0.00 83 1023.8
20260831112626 73 185 2.0 4.0 0.00 0.00 0.00 83 1023.7
20260831112526 73 180 2.0 4.0 0.00 0.00 0.00 83 1023.7
20260831112500 73 175 2.0 6.0 0.00 0.00 0.00 83 1023.7
20260831112448 73 179 2.0 6.0 0.00 0.00 0.00 83 1023.8
20260831112225 73 175 2.0 6.0 0.00 0.00 0.00 83 1023.7
20260831112202 73 208 2.0 6.0 0.00 0.00 0.00 83 1023.7
20260831112148 73 175 2.0 6.0 0.00 0.00 0.00 83 1023.7
20260831111924 73 184 2.0 6.0 0.00 0.00 0.00 83 1023.7
20260831111823 73 194 2.0 6.0 0.00 0.00 0.00 83 1023.7
20260831111723 73 194 2.0 7.0 0.00 0.00 0.00 83 1023.8
20260831111620 73 210 2.0 7.0 0.00 0.00 0.00 83 1023.8
20260831111519 73 219 2.0 7.0 0.00 0.00 0.00 83 1023.7
20260831111421 73 167 2.0 7.0 0.00 0.00 0.00 83 1023.8
20260831111320 73 186 2.0 7.0 0.00 0.00 0.00 83 1023.8
20260831111220 73 244 2.0 7.0 0.00 0.00 0.00 83 1023.7
20260831111120 73 207 2.0 7.0 0.00 0.00 0.00 83 1023.8
20260831111021 73 159 2.0 7.0 0.00 0.00 0.00 83 1023.7
20260831110920 73 202 2.0 7.0 0.00 0.00 0.00 84 1023.8
20260831110821 73 200 2.0 7.0 0.00 0.00 0.00 83 1023.8
20260831110719 73 240 2.0 6.0 0.00 0.00 0.00 83 1023.8
20260831110620 73 271 2.0 6.0 0.00 0.00 0.00 83 1023.8
20260831110518 73 272 2.0 6.0 0.00 0.00 0.00 83 1023.8
20260831110419 73 204 2.0 6.0 0.00 0.00 0.00 83 1023.7
20260831110348 73 120 2.0 6.0 0.00 0.00 0.00 83 1023.7
20260831110337 73 244 2.0 6.0 0.00 0.00 0.00 83 1023.7
20260831110112 73 119 2.0 7.0 0.00 0.00 0.00 83 1023.7
20260831110055 73 194 2.0 7.0 0.00 0.00 0.00 83 1023.6
20260831110050 73 208 2.0 7.0 0.00 0.00 0.00 83 1023.6
20260831110046 73 221 2.0 7.0 0.00 0.00 0.00 83 1023.6
20260831110028 73 157 2.0 7.0 0.00 0.00 0.00 83 1023.7
20260831110013 73 194 2.0 7.0 0.00 0.00 0.00 83 1023.7
20260831105531 73 242 2.0 7.0 0.00 0.00 0.00 83 1023.5
20260831105525 73 244 2.0 7.0 0.00 0.00 0.00 83 1023.5
20260831105512 73 240 2.0 7.0 0.00 0.00 0.00 83 1023.5
20260831105448 73 234 2.0 7.0 0.00 0.00 0.00 83 1023.5
20260831105102 73 199 2.0 6.0 0.00 0.00 0.00 83 1023.5
20260831105040 74 214 2.0 6.0 0.00 0.00 0.00 82 1023.5
20260831105027 73 202 2.0 6.0 0.00 0.00 0.00 82 1023.5
20260831104803 74 202 2.0 6.0 0.00 0.00 0.00 82 1023.5
20260831104700 74 155 2.0 6.0 0.00 0.00 0.00 82 1023.5
20260831104559 74 220 2.0 6.0 0.00 0.00 0.00 82 1023.5
20260831104527 74 211 2.0 6.0 0.00 0.00 0.00 82 1023.5
20260831104521 74 190 2.0 6.0 0.00 0.00 0.00 82 1023.5
20260831104509 74 187 2.0 6.0 0.00 0.00 0.00 82 1023.5
20260831104452 74 219 2.0 6.0 0.00 0.00 0.00 82 1023.5
20260831104209 74 240 2.0 6.0 0.00 0.00 0.00 82 1023.5
20260831104204 74 206 2.0 6.0 0.00 0.00 0.00 82 1023.6
20260831104155 74 223 2.0 6.0 0.00 0.00 0.00 82 1023.5
20260831104148 74 211 2.0 6.0 0.00 0.00 0.00 82 1023.5
20260831104132 74 216 2.0 6.0 0.00 0.00 0.00 82 1023.5
20260831103950 74 191 2.0 6.0 0.00 0.00 0.00 82 1023.5
20260831103445 74 205 2.0 6.0 0.00 0.00 0.00 82 1023.5
20260831103344 74 218 2.0 6.0 0.00 0.00 0.00 82 1023.5
20260831103246 74 217 2.0 6.0 0.00 0.00 0.00 82 1023.5
20260831103145 74 201 2.0 6.0 0.00 0.00 0.00 82 1023.5
20260831103040 74 192 2.0 5.0 0.00 0.00 0.00 82 1023.5
20260831103017 74 217 2.0 6.0 0.00 0.00 0.00 82 1023.5
20260831103004 74 192 2.0 6.0 0.00 0.00 0.00 82 1023.4
20260831102832 74 217 2.0 6.0 0.00 0.00 0.00 82 1023.5
20260831102827 74 217 2.0 6.0 0.00 0.00 0.00 82 1023.5
20260831102810 74 217 2.0 6.0 0.00 0.00 0.00 82 1023.5
20260831102430 74 226 2.0 6.0 0.00 0.00 0.00 82 1023.5
20260831102331 74 187 2.0 6.0 0.00 0.00 0.00 82 1023.4
20260831102232 74 184 2.0 6.0 0.00 0.00 0.00 82 1023.5
20260831102131 74 183 2.0 6.0 0.00 0.00 0.00 82 1023.5
20260831102022 74 201 2.0 8.0 0.00 0.00 0.00 82 1023.5
20260831101921 74 203 2.0 8.0 0.00 0.00 0.00 82 1023.4
20260831101836 74 184 2.0 8.0 0.00 0.00 0.00 82 1023.2
20260831101830 74 256 2.0 8.0 0.00 0.00 0.00 82 1023.4
20260831101820 74 178 2.0 8.0 0.00 0.00 0.00 82 1023.4
20260831101813 74 174 2.0 8.0 0.00 0.00 0.00 82 1023.2
20260831101800 74 217 2.0 8.0 0.00 0.00 0.00 82 1023.4
20260831101620 74 174 2.0 8.0 0.00 0.00 0.00 82 1023.4
20260831101334 74 242 2.0 8.0 0.00 0.00 0.00 82 1023.2
20260831101111 74 164 2.0 7.0 0.00 0.00 0.00 82 1023.2
20260831101008 74 194 2.0 7.0 0.00 0.00 0.00 82 1023.4
20260831100904 74 194 2.0 7.0 0.00 0.00 0.00 82 1023.4
20260831100805 74 211 2.0 7.0 0.00 0.00 0.00 82 1023.4
20260831100705 74 211 2.0 7.0 0.00 0.00 0.00 82 1023.4
20260831100605 74 213 2.0 7.0 0.00 0.00 0.00 82 1023.2
20260831100456 74 203 2.0 7.0 0.00 0.00 0.00 82 1023.2
20260831100353 74 169 2.0 7.0 0.00 0.00 0.00 82 1023.4
20260831100256 74 221 2.0 6.0 0.00 0.00 0.00 82 1023.2
20260831100154 74 290 2.0 5.0 0.00 0.00 0.00 82 1023.4
20260831100054 74 227 2.0 5.0 0.00 0.00 0.00 82 1023.2
20260831095955 74 227 2.0 5.0 0.00 0.00 0.00 82 1023.2
20260831095849 74 228 2.0 8.0 0.00 0.00 0.00 82 1023.2
20260831095749 74 187 2.0 10.0 0.00 0.00 0.00 82 1023.2
20260831095721 74 197 2.0 10.0 0.00 0.00 0.00 82 1023.2
20260831095710 74 181 2.0 10.0 0.00 0.00 0.00 82 1023.4
20260831095442 74 218 2.0 10.0 0.00 0.00 0.00 82 1023.1
20260831095342 74 198 2.0 10.0 0.00 0.00 0.00 82 1023.1
20260831095243 74 182 2.0 10.0 0.00 0.00 0.00 82 1023.2
20260831095147 74 179 3.0 10.0 0.00 0.00 0.00 82 1023.2
20260831095042 74 204 2.0 10.0 0.00 0.00 0.00 82 1023.2
20260831094935 74 185 3.0 10.0 0.00 0.00 0.00 82 1023.2
20260831094833 74 205 3.0 10.0 0.00 0.00 0.00 82 1023.2
20260831094733 74 179 2.0 10.0 0.00 0.00 0.00 82 1023.2
20260831094634 74 193 3.0 10.0 0.00 0.00 0.00 82 1023.1
20260831094559 74 203 2.0 10.0 0.00 0.00 0.00 81 1023.1
20260831094548 74 209 2.0 10.0 0.00 0.00 0.00 81 1023.1
20260831094323 74 178 2.0 10.0 0.00 0.00 0.00 82 1023.1
20260831094223 74 178 2.0 10.0 0.00 0.00 0.00 82 1023.1
20260831094122 74 212 2.0 10.0 0.00 0.00 0.00 82 1023.1
20260831094023 74 169 2.0 10.0 0.00 0.00 0.00 82 1023.1
20260831093918 74 248 2.0 9.0 0.00 0.00 0.00 82 1023.2
20260831093819 74 200 2.0 9.0 0.00 0.00 0.00 82 1023.2
20260831093718 74 180 2.0 8.0 0.00 0.00 0.00 82 1023.2
20260831093650 74 113 2.0 8.0 0.00 0.00 0.00 82 1023.1
20260831093641 74 134 2.0 8.0 0.00 0.00 0.00 82 1023.1
20260831093444 74 195 2.0 7.0 0.00 0.00 0.00 82 1023.0
20260831093432 74 183 2.0 7.0 0.00 0.00 0.00 82 1023.1
20260831093217 74 239 2.0 7.0 0.00 0.00 0.00 81 1023.1
20260831093109 74 202 2.0 7.0 0.00 0.00 0.00 81 1023.1
20260831093007 74 218 2.0 7.0 0.00 0.00 0.00 81 1023.1
20260831092902 74 201 2.0 6.0 0.00 0.00 0.00 81 1023.0
20260831092833 74 200 2.0 6.0 0.00 0.00 0.00 81 1023.1
20260831092823 74 196 2.0 6.0 0.00 0.00 0.00 81 1023.1
20260831092600 74 204 2.0 5.0 0.00 0.00 0.00 81 1023.1
20260831092500 74 204 2.0 7.0 0.00 0.00 0.00 81 1023.0
20260831092355 74 161 2.0 7.0 0.00 0.00 0.00 81 1023.1
20260831092254 74 159 2.0 7.0 0.00 0.00 0.00 81 1023.0
20260831092156 74 232 2.0 7.0 0.00 0.00 0.00 81 1023.0
20260831092055 74 176 2.0 7.0 0.00 0.00 0.00 81 1023.1
20260831091954 74 178 2.0 7.0 0.00 0.00 0.00 81 1023.0
20260831091842 74 193 2.0 7.0 0.00 0.00 0.00 81 1023.0
20260831091742 74 193 2.0 7.0 0.00 0.00 0.00 81 1023.0
20260831091713 74 207 2.0 7.0 0.00 0.00 0.00 82 1023.0
20260831091702 74 209 2.0 7.0 0.00 0.00 0.00 81 1023.1
20260831091440 74 173 2.0 6.0 0.00 0.00 0.00 82 1023.0
20260831091351 74 189 2.0 6.0 0.00 0.00 0.00 82 1023.0
20260831091347 74 202 2.0 6.0 0.00 0.00 0.00 82 1023.0
20260831091336 74 265 2.0 6.0 0.00 0.00 0.00 82 1023.0
20260831091316 74 265 2.0 6.0 0.00 0.00 0.00 82 1023.0
20260831090935 74 202 1.0 6.0 0.00 0.00 0.00 82 1023.0
20260831090832 74 250 1.0 6.0 0.00 0.00 0.00 82 1023.0
20260831090732 73 204 1.0 6.0 0.00 0.00 0.00 83 1023.0
20260831090632 73 214 1.0 4.0 0.00 0.00 0.00 83 1023.1
20260831090559 73 159 1.0 4.0 0.00 0.00 0.00 83 1023.0
20260831090551 73 213 1.0 4.0 0.00 0.00 0.00 83 1023.0
20260831090318 73 219 1.0 4.0 0.00 0.00 0.00 83 1023.1
20260831090218 73 173 1.0 4.0 0.00 0.00 0.00 84 1023.0
20260831090118 73 152 1.0 4.0 0.00 0.00 0.00 84 1023.0
20260831090017 73 161 1.0 4.0 0.00 0.00 0.00 84 1023.0
20260831085919 73 159 1.0 4.0 0.00 0.00 0.00 84 1023.1
20260831085833 73 158 2.0 4.0 0.00 0.00 0.00 84 1023.0
20260831085828 73 158 2.0 4.0 0.00 0.00 0.00 84 1023.0
20260831085816 73 158 1.0 4.0 0.00 0.00 0.00 84 1023.0
20260831085754 73 158 2.0 4.0 0.00 0.00 0.00 84 1023.0
20260831085413 73 158 2.0 4.0 0.00 0.00 0.00 84 1023.0
20260831085307 73 183 1.0 4.0 0.00 0.00 0.00 84 1023.0
20260831085209 73 197 2.0 3.0 0.00 0.00 0.00 84 1023.0
20260831085109 73 197 2.0 5.0 0.00 0.00 0.00 83 1023.0
20260831085005 73 221 2.0 5.0 0.00 0.00 0.00 83 1023.0
20260831084909 73 221 2.0 5.0 0.00 0.00 0.00 83 1023.0
20260831084833 73 228 2.0 5.0 0.00 0.00 0.00 83 1022.9
20260831084822 73 221 2.0 5.0 0.00 0.00 0.00 83 1023.0
20260831084552 74 232 2.0 5.0 0.00 0.00 0.00 82 1022.9
20260831084454 74 232 2.0 5.0 0.00 0.00 0.00 82 1023.0
20260831084354 74 190 2.0 7.0 0.00 0.00 0.00 82 1022.9
20260831084249 74 173 2.0 7.0 0.00 0.00 0.00 82 1022.9
20260831084151 74 226 2.0 7.0 0.00 0.00 0.00 82 1023.0
20260831084050 74 206 2.0 7.0 0.00 0.00 0.00 82 1022.9
20260831083957 74 205 2.0 7.0 0.00 0.00 0.00 82 1022.9
20260831083850 74 209 2.0 7.0 0.00 0.00 0.00 82 1022.9
20260831083743 74 209 2.0 7.0 0.00 0.00 0.00 81 1022.9
20260831083641 74 207 2.0 7.0 0.00 0.00 0.00 81 1022.9
20260831083548 74 207 2.0 7.0 0.00 0.00 0.00 81 1022.8
20260831083440 74 240 2.0 7.0 0.00 0.00 0.00 81 1022.8
20260831083341 74 180 2.0 6.0 0.00 0.00 0.00 81 1022.8
20260831083240 74 216 2.0 6.0 0.00 0.00 0.00 81 1022.8
20260831083139 74 219 2.0 6.0 0.00 0.00 0.00 81 1022.8
20260831083042 74 160 2.0 6.0 0.00 0.00 0.00 81 1022.8
20260831083012 74 144 2.0 7.0 0.00 0.00 0.00 81 1022.7
20260831083003 74 161 2.0 7.0 0.00 0.00 0.00 81 1022.8
20260831082743 74 201 2.0 7.0 0.00 0.00 0.00 81 1022.8
20260831082637 74 194 2.0 7.0 0.00 0.00 0.00 81 1022.8
20260831082536 74 169 2.0 7.0 0.00 0.00 0.00 81 1022.8
20260831082434 74 190 2.0 7.0 0.00 0.00 0.00 81 1022.8
20260831082335 74 209 2.0 7.0 0.00 0.00 0.00 81 1022.8
20260831082232 74 165 2.0 7.0 0.00 0.00 0.00 81 1022.8
20260831082135 74 167 2.0 7.0 0.00 0.00 0.00 81 1022.8
20260831082126 75 178 2.0 7.0 0.00 0.00 0.00 81 1022.8
20260831082103 75 192 2.0 7.0 0.00 0.00 0.00 81 1022.8
20260831081835 75 287 2.0 7.0 0.00 0.00 0.00 81 1022.8
20260831081734 75 179 2.0 7.0 0.00 0.00 0.00 81 1022.8
20260831081630 75 184 2.0 7.0 0.00 0.00 0.00 80 1022.8
20260831081524 75 186 2.0 7.0 0.00 0.00 0.00 80 1022.8
20260831081508 75 186 2.0 7.0 0.00 0.00 0.00 80 1022.7
20260831081453 75 186 2.0 7.0 0.00 0.00 0.00 80 1022.7
20260831081223 75 186 2.0 7.0 0.00 0.00 0.00 80 1022.7
20260831081126 75 198 2.0 7.0 0.00 0.00 0.00 80 1022.8
20260831081020 75 181 2.0 7.0 0.00 0.00 0.00 80 1022.8
20260831080920 75 186 2.0 4.0 0.00 0.00 0.00 80 1022.9
20260831080820 75 184 2.0 4.0 0.00 0.00 0.00 80 1022.8
20260831080719 75 186 2.0 4.0 0.00 0.00 0.00 80 1022.8
20260831080704 75 154 2.0 6.0 0.00 0.00 0.00 81 1022.8
20260831080659 75 216 2.0 6.0 0.00 0.00 0.00 81 1022.8
20260831080655 75 189 2.0 6.0 0.00 0.00 0.00 81 1022.9
20260831080643 75 252 2.0 6.0 0.00 0.00 0.00 81 1022.8
20260831080457 75 154 2.0 6.0 0.00 0.00 0.00 81 1022.8
20260831080115 75 153 2.0 6.0 0.00 0.00 0.00 81 1022.7
20260831080015 74 189 2.0 6.0 0.00 0.00 0.00 81 1022.8
20260831075911 74 189 2.0 6.0 0.00 0.00 0.00 81 1022.7
20260831075813 74 207 2.0 6.0 0.00 0.00 0.00 81 1022.8
20260831075711 74 166 2.0 6.0 0.00 0.00 0.00 81 1022.8
20260831075610 74 156 2.0 8.0 0.00 0.00 0.00 81 1022.9
20260831075509 74 156 2.0 8.0 0.00 0.00 0.00 81 1022.8
20260831075407 74 156 2.0 8.0 0.00 0.00 0.00 81 1022.8
20260831075306 74 206 2.0 8.0 0.00 0.00 0.00 81 1022.8
20260831075204 74 206 2.0 8.0 0.00 0.00 0.00 81 1022.8
20260831075104 74 187 2.0 8.0 0.00 0.00 0.00 81 1022.8
20260831075003 74 178 2.0 8.0 0.00 0.00 0.00 81 1022.8
20260831074903 74 195 2.0 8.0 0.00 0.00 0.00 81 1022.8
20260831074802 74 157 1.0 8.0 0.00 0.00 0.00 82 1022.8
20260831074702 74 229 1.0 8.0 0.00 0.00 0.00 82 1022.8
20260831074603 74 219 1.0 6.0 0.00 0.00 0.00 82 1022.8
20260831074501 74 225 1.0 6.0 0.00 0.00 0.00 82 1022.8
20260831074359 74 133 1.0 6.0 0.00 0.00 0.00 82 1022.8
20260831074252 74 132 1.0 6.0 0.00 0.00 0.00 82 1022.8
20260831074152 74 129 2.0 6.0 0.00 0.00 0.00 82 1022.8
20260831074054 74 198 1.0 6.0 0.00 0.00 0.00 83 1022.8
20260831073953 73 198 2.0 6.0 0.00 0.00 0.00 83 1022.8
20260831073854 73 190 2.0 6.0 0.00 0.00 0.00 83 1022.8
20260831073752 73 190 2.0 6.0 0.00 0.00 0.00 83 1022.8
20260831073650 73 217 2.0 6.0 0.00 0.00 0.00 83 1022.8
20260831073547 73 236 2.0 6.0 0.00 0.00 0.00 83 1022.8
20260831073448 73 235 2.0 6.0 0.00 0.00 0.00 83 1022.8
20260831073351 73 167 1.0 6.0 0.00 0.00 0.00 83 1022.8
20260831073243 73 158 1.0 6.0 0.00 0.00 0.00 84 1022.9
20260831073142 73 230 1.0 6.0 0.00 0.00 0.00 84 1022.8
20260831073042 73 228 1.0 6.0 0.00 0.00 0.00 84 1022.9
20260831072941 73 175 1.0 6.0 0.00 0.00 0.00 84 1022.9
20260831072843 73 180 1.0 5.0 0.00 0.00 0.00 84 1022.9
20260831072740 73 190 2.0 5.0 0.00 0.00 0.00 84 1022.9
20260831072638 73 83 1.0 5.0 0.00 0.00 0.00 84 1023.0
20260831072536 73 202 2.0 5.0 0.00 0.00 0.00 84 1022.9
20260831072436 73 165 2.0 5.0 0.00 0.00 0.00 84 1022.9
20260831072340 73 157 2.0 5.0 0.00 0.00 0.00 84 1022.9
20260831072333 73 150 2.0 5.0 0.00 0.00 0.00 84 1022.8
20260831072314 73 157 2.0 5.0 0.00 0.00 0.00 84 1022.9
20260831072155 73 157 2.0 5.0 0.00 0.00 0.00 84 1022.9
20260831071933 73 170 2.0 5.0 0.00 0.00 0.00 84 1022.9
20260831071835 73 165 2.0 5.0 0.00 0.00 0.00 84 1022.9
20260831071809 73 254 1.0 5.0 0.00 0.00 0.00 83 1022.9
20260831071758 73 252 1.0 5.0 0.00 0.00 0.00 84 1022.9
20260831071526 73 238 1.0 5.0 0.00 0.00 0.00 83 1022.9
20260831071427 73 190 1.0 4.0 0.00 0.00 0.00 83 1023.0
20260831071328 73 191 1.0 4.0 0.00 0.00 0.00 83 1022.9
20260831071305 73 182 1.0 6.0 0.00 0.00 0.00 83 1022.9
20260831071252 73 180 1.0 6.0 0.00 0.00 0.00 83 1022.9
20260831071025 73 176 1.0 6.0 0.00 0.00 0.00 83 1022.9
20260831070926 73 143 1.0 6.0 0.00 0.00 0.00 83 1022.9
20260831070823 73 69 1.0 6.0 0.00 0.00 0.00 83 1022.9
20260831070728 73 166 1.0 6.0 0.00 0.00 0.00 83 1022.9
20260831070654 73 203 1.0 4.0 0.00 0.00 0.00 83 1023.0
20260831070649 73 161 1.0 6.0 0.00 0.00 0.00 83 1022.9
20260831070636 73 166 1.0 6.0 0.00 0.00 0.00 83 1022.9
20260831070618 73 161 1.0 6.0 0.00 0.00 0.00 83 1022.9
20260831070333 73 148 1.0 6.0 0.00 0.00 0.00 83 1022.9
20260831070117 73 186 1.0 4.0 0.00 0.00 0.00 83 1022.9
20260831070014 73 243 1.0 4.0 0.00 0.00 0.00 83 1022.9
20260831065912 73 196 1.0 4.0 0.00 0.00 0.00 83 1022.9
20260831065814 73 196 1.0 4.0 0.00 0.00 0.00 83 1022.8
20260831065711 73 258 1.0 5.0 0.00 0.00 0.00 83 1022.9
20260831065610 73 258 1.0 5.0 0.00 0.00 0.00 83 1022.9
20260831065510 73 195 1.0 5.0 0.00 0.00 0.00 83 1022.9
20260831065410 73 166 1.0 5.0 0.00 0.00 0.00 83 1022.9
20260831065311 73 158 1.0 5.0 0.00 0.00 0.00 83 1023.0
20260831065209 73 158 1.0 5.0 0.00 0.00 0.00 83 1022.9
20260831065140 73 180 1.0 5.0 0.00 0.00 0.00 83 1023.0
20260831065129 73 157 1.0 5.0 0.00 0.00 0.00 83 1022.8
20260831064905 73 180 1.0 5.0 0.00 0.00 0.00 83 1023.0
20260831064805 73 180 1.0 5.0 0.00 0.00 0.00 83 1022.9
20260831064704 73 252 1.0 4.0 0.00 0.00 0.00 83 1023.0
20260831064604 73 195 1.0 4.0 0.00 0.00 0.00 83 1022.9
20260831064507 73 194 1.0 4.0 0.00 0.00 0.00 83 1022.9
20260831064430 73 182 1.0 4.0 0.00 0.00 0.00 82 1023.0
20260831064421 73 207 1.0 4.0 0.00 0.00 0.00 83 1022.9
20260831064157 73 160 1.0 6.0 0.00 0.00 0.00 82 1022.9
20260831064059 73 216 1.0 6.0 0.00 0.00 0.00 82 1023.0
20260831064030 73 197 1.0 6.0 0.00 0.00 0.00 82 1022.9
20260831064018 73 182 1.0 6.0 0.00 0.00 0.00 82 1023.0
20260831063753 73 169 1.0 6.0 0.00 0.00 0.00 82 1023.0
20260831063652 74 221 1.0 6.0 0.00 0.00 0.00 82 1023.0
20260831063553 73 221 1.0 6.0 0.00 0.00 0.00 82 1023.0
20260831063450 74 221 1.0 6.0 0.00 0.00 0.00 82 1022.9
20260831063349 74 170 1.0 6.0 0.00 0.00 0.00 82 1023.0
20260831063247 74 203 1.0 6.0 0.00 0.00 0.00 82 1023.0
20260831063221 74 189 1.0 6.0 0.00 0.00 0.00 82 1023.0
20260831063211 74 175 1.0 6.0 0.00 0.00 0.00 82 1023.0
20260831063002 73 152 1.0 6.0 0.00 0.00 0.00 82 1023.0
20260831062949 73 152 1.0 6.0 0.00 0.00 0.00 82 1023.0
20260831062928 73 152 1.0 6.0 0.00 0.00 0.00 82 1023.0
20260831062806 73 152 1.0 6.0 0.00 0.00 0.00 82 1023.1
20260831062543 73 153 1.0 6.0 0.00 0.00 0.00 83 1023.0
20260831062445 73 153 1.0 6.0 0.00 0.00 0.00 83 1023.0
20260831062343 73 142 1.0 6.0 0.00 0.00 0.00 83 1023.0
20260831062244 73 163 1.0 6.0 0.00 0.00 0.00 83 1022.9
20260831062145 73 146 1.0 6.0 0.00 0.00 0.00 83 1023.1
20260831062039 73 146 1.0 6.0 0.00 0.00 0.00 83 1023.0
20260831061938 73 144 1.0 6.0 0.00 0.00 0.00 83 1023.0
20260831061839 73 156 1.0 4.0 0.00 0.00 0.00 83 1023.0
20260831061809 73 156 1.0 4.0 0.00 0.00 0.00 83 1023.0
20260831061758 73 156 1.0 4.0 0.00 0.00 0.00 83 1023.0
20260831061525 73 156 1.0 4.0 0.00 0.00 0.00 83 1023.1
20260831061430 73 212 1.0 4.0 0.00 0.00 0.00 83 1023.1
20260831061356 73 229 1.0 4.0 0.00 0.00 0.00 83 1023.1
20260831061345 73 229 1.0 4.0 0.00 0.00 0.00 83 1023.1
20260831061157 73 139 1.0 5.0 0.00 0.00 0.00 83 1023.1
20260831061146 73 229 1.0 5.0 0.00 0.00 0.00 83 1023.1
20260831060929 73 209 1.0 5.0 0.00 0.00 0.00 83 1023.1
20260831060858 73 165 1.0 5.0 0.00 0.00 0.00 83 1023.0
20260831060847 73 209 1.0 5.0 0.00 0.00 0.00 83 1023.1
20260831060622 73 178 1.0 5.0 0.00 0.00 0.00 83 1023.0
20260831060523 73 193 1.0 5.0 0.00 0.00 0.00 83 1023.0
20260831060422 73 193 1.0 5.0 0.00 0.00 0.00 83 1023.0
20260831060322 73 192 1.0 5.0 0.00 0.00 0.00 83 1023.0
20260831060219 73 192 1.0 5.0 0.00 0.00 0.00 83 1023.0
20260831060121 73 209 1.0 4.0 0.00 0.00 0.00 83 1023.0
20260831060020 73 217 1.0 4.0 0.00 0.00 0.00 83 1023.0
20260831055921 73 145 1.0 4.0 0.00 0.00 0.00 83 1023.0
20260831055817 73 135 1.0 4.0 0.00 0.00 0.00 83 1023.0
20260831055729 73 117 1.0 5.0 0.00 0.00 0.00 83 1023.0
20260831055720 73 175 1.0 4.0 0.00 0.00 0.00 83 1023.1
20260831055713 73 194 2.0 5.0 0.00 0.00 0.00 83 1023.0
20260831055653 73 166 1.0 4.0 0.00 0.00 0.00 83 1023.0
20260831055319 73 194 2.0 5.0 0.00 0.00 0.00 83 1023.0
20260831055217 73 178 2.0 5.0 0.00 0.00 0.00 83 1023.1
20260831055118 73 178 2.0 5.0 0.00 0.00 0.00 83 1023.1
20260831055019 73 178 2.0 6.0 0.00 0.00 0.00 83 1023.1
20260831054918 73 249 2.0 6.0 0.00 0.00 0.00 83 1023.1
20260831054902 73 171 2.0 6.0 0.00 0.00 0.00 83 1023.1
20260831054850 73 226 2.0 6.0 0.00 0.00 0.00 83 1023.1
20260831054618 73 174 2.0 6.0 0.00 0.00 0.00 83 1023.1
20260831054519 73 189 2.0 6.0 0.00 0.00 0.00 83 1023.1
20260831054425 73 192 2.0 6.0 0.00 0.00 0.00 83 1023.1
20260831054320 73 245 2.0 6.0 0.00 0.00 0.00 83 1023.1
20260831054217 73 195 2.0 6.0 0.00 0.00 0.00 84 1023.1
20260831054119 73 217 2.0 7.0 0.00 0.00 0.00 84 1023.1
20260831054017 73 192 2.0 7.0 0.00 0.00 0.00 83 1023.2
20260831053919 73 198 2.0 7.0 0.00 0.00 0.00 84 1023.2
20260831053817 73 195 2.0 7.0 0.00 0.00 0.00 84 1023.2
20260831053717 73 199 2.0 7.0 0.00 0.00 0.00 83 1023.1
20260831053617 73 197 2.0 7.0 0.00 0.00 0.00 84 1023.2
20260831053551 73 155 2.0 7.0 0.00 0.00 0.00 83 1023.2
20260831053540 73 248 2.0 7.0 0.00 0.00 0.00 84 1023.2
20260831053353 73 173 2.0 7.0 0.00 0.00 0.00 83 1023.2
20260831053341 73 227 2.0 7.0 0.00 0.00 0.00 83 1023.1
20260831053117 73 192 2.0 6.0 0.00 0.00 0.00 83 1023.1
20260831053018 73 192 2.0 6.0 0.00 0.00 0.00 83 1023.2
20260831052918 73 194 2.0 7.0 0.00 0.00 0.00 83 1023.4
20260831052907 73 162 2.0 7.0 0.00 0.00 0.00 83 1023.4
20260831052852 73 138 2.0 7.0 0.00 0.00 0.00 83 1023.2
20260831052617 73 220 2.0 7.0 0.00 0.00 0.00 83 1023.2
20260831052519 73 220 2.0 7.0 0.00 0.00 0.00 83 1023.4
20260831052417 73 219 2.0 7.0 0.00 0.00 0.00 83 1023.2
20260831052317 73 215 2.0 7.0 0.00 0.00 0.00 83 1023.2
20260831052219 73 186 2.0 7.0 0.00 0.00 0.00 83 1023.4
20260831052153 73 180 2.0 7.0 0.00 0.00 0.00 83 1023.4
20260831052141 73 180 2.0 7.0 0.00 0.00 0.00 83 1023.4
20260831051951 73 235 2.0 7.0 0.00 0.00 0.00 83 1023.4
20260831051940 73 179 2.0 7.0 0.00 0.00 0.00 83 1023.4
20260831051717 73 196 1.0 7.0 0.00 0.00 0.00 83 1023.4
20260831051618 73 197 2.0 7.0 0.00 0.00 0.00 83 1023.2
20260831051519 73 180 2.0 7.0 0.00 0.00 0.00 83 1023.4
20260831051418 73 209 2.0 7.0 0.00 0.00 0.00 83 1023.4
20260831051318 73 209 2.0 7.0 0.00 0.00 0.00 83 1023.4
20260831051219 73 115 2.0 7.0 0.00 0.00 0.00 83 1023.4
20260831051114 73 81 2.0 7.0 0.00 0.00 0.00 83 1023.4
20260831051045 73 211 2.0 6.0 0.00 0.00 0.00 83 1023.4
20260831051035 73 214 2.0 7.0 0.00 0.00 0.00 83 1023.4
20260831050815 73 224 2.0 6.0 0.00 0.00 0.00 83 1023.2
20260831050713 73 225 2.0 6.0 0.00 0.00 0.00 83 1023.2
20260831050615 73 155 2.0 6.0 0.00 0.00 0.00 83 1023.4
20260831050515 73 180 2.0 4.0 0.00 0.00 0.00 84 1023.4
20260831050452 73 229 2.0 8.0 0.00 0.00 0.00 84 1023.4
20260831050446 73 180 2.0 8.0 0.00 0.00 0.00 84 1023.4
20260831050442 73 194 2.0 8.0 0.00 0.00 0.00 84 1023.2
20260831050427 73 233 2.0 4.0 0.00 0.00 0.00 84 1023.4
20260831050411 73 233 2.0 8.0 0.00 0.00 0.00 84 1023.4
20260831045910 73 180 2.0 8.0 0.00 0.00 0.00 84 1023.4
20260831045810 73 191 2.0 8.0 0.00 0.00 0.00 84 1023.4
20260831045710 73 191 2.0 8.0 0.00 0.00 0.00 84 1023.4
20260831045610 73 190 2.0 8.0 0.00 0.00 0.00 84 1023.4
20260831045517 73 234 2.0 8.0 0.00 0.00 0.00 84 1023.4
20260831045410 73 154 2.0 8.0 0.00 0.00 0.00 84 1023.2
20260831045311 73 211 2.0 6.0 0.00 0.00 0.00 84 1023.2
20260831045211 73 210 2.0 6.0 0.00 0.00 0.00 84 1023.2
20260831045111 73 190 2.0 6.0 0.00 0.00 0.00 84 1023.4
20260831045012 73 190 1.0 6.0 0.00 0.00 0.00 84 1023.4
20260831044912 73 189 1.0 6.0 0.00 0.00 0.00 84 1023.4
20260831044810 73 197 1.0 6.0 0.00 0.00 0.00 84 1023.2
20260831044713 73 195 2.0 6.0 0.00 0.00 0.00 84 1023.2
20260831044612 73 195 2.0 6.0 0.00 0.00 0.00 84 1023.2
20260831044508 73 176 1.0 6.0 0.00 0.00 0.00 84 1023.1
20260831044406 73 156 1.0 6.0 0.00 0.00 0.00 84 1023.2
20260831044343 73 156 2.0 6.0 0.00 0.00 0.00 84 1023.2
20260831044329 73 156 1.0 6.0 0.00 0.00 0.00 84 1023.2
20260831044106 73 156 2.0 6.0 0.00 0.00 0.00 84 1023.4
20260831044037 73 183 2.0 6.0 0.00 0.00 0.00 84 1023.2
20260831044026 73 183 2.0 6.0 0.00 0.00 0.00 84 1023.1
20260831043805 73 183 2.0 6.0 0.00 0.00 0.00 84 1023.2
20260831043705 73 206 2.0 6.0 0.00 0.00 0.00 84 1023.2
20260831043604 73 201 2.0 5.0 0.00 0.00 0.00 84 1023.4
20260831043504 73 196 2.0 5.0 0.00 0.00 0.00 84 1023.2
20260831043405 73 194 2.0 5.0 0.00 0.00 0.00 83 1023.4
20260831043302 73 166 2.0 5.0 0.00 0.00 0.00 83 1023.4
20260831043200 73 219 2.0 5.0 0.00 0.00 0.00 84 1023.2
20260831043102 73 194 2.0 5.0 0.00 0.00 0.00 84 1023.4
20260831043000 73 213 2.0 5.0 0.00 0.00 0.00 84 1023.4
20260831042856 73 217 2.0 5.0 0.00 0.00 0.00 84 1023.4
20260831042748 73 217 2.0 5.0 0.00 0.00 0.00 84 1023.4
20260831042647 73 198 2.0 4.0 0.00 0.00 0.00 84 1023.4
20260831042546 73 198 2.0 4.0 0.00 0.00 0.00 84 1023.4
20260831042459 73 235 2.0 5.0 0.00 0.00 0.00 84 1023.4
20260831042447 73 198 2.0 4.0 0.00 0.00 0.00 84 1023.4
20260831042440 73 174 1.0 3.0 0.00 0.00 0.00 84 1023.4
20260831042435 73 174 1.0 3.0 0.00 0.00 0.00 83 1023.4
20260831042429 73 221 1.0 3.0 0.00 0.00 0.00 83 1023.2
20260831042413 73 198 2.0 4.0 0.00 0.00 0.00 84 1023.4
20260831042355 73 228 2.0 5.0 0.00 0.00 0.00 84 1023.5
20260831042214 73 235 2.0 5.0 0.00 0.00 0.00 84 1023.4
20260831042200 73 235 2.0 5.0 0.00 0.00 0.00 84 1023.4
20260831042141 73 235 2.0 5.0 0.00 0.00 0.00 84 1023.5
20260831042116 73 232 2.0 5.0 0.00 0.00 0.00 84 1023.4
20260831042059 73 204 2.0 5.0 0.00 0.00 0.00 84 1023.5
20260831042039 73 204 2.0 5.0 0.00 0.00 0.00 84 1023.4
20260831042019 73 205 1.0 5.0 0.00 0.00 0.00 84 1023.5
20260831041958 73 215 1.0 5.0 0.00 0.00 0.00 84 1023.4
20260831041822 73 174 1.0 3.0 0.00 0.00 0.00 84 1023.4
20260831041645 73 173 1.0 3.0 0.00 0.00 0.00 83 1023.4
20260831040725 73 221 1.0 3.0 0.00 0.00 0.00 83 1023.4
20260831040651 73 211 1.0 3.0 0.00 0.00 0.00 83 1023.4
20260831040643 73 221 1.0 3.0 0.00 0.00 0.00 83 1023.4
20260831040450 73 210 1.0 3.0 0.00 0.00 0.00 83 1023.4
20260831040440 73 210 1.0 3.0 0.00 0.00 0.00 83 1023.4
20260831040219 73 210 1.0 3.0 0.00 0.00 0.00 83 1023.2
20260831040118 74 227 1.0 3.0 0.00 0.00 0.00 83 1023.4
20260831040018 74 188 1.0 3.0 0.00 0.00 0.00 83 1023.2
20260831035919 74 188 1.0 3.0 0.00 0.00 0.00 83 1023.4
20260831035818 74 188 1.0 3.0 0.00 0.00 0.00 83 1023.4
20260831035719 74 208 2.0 3.0 0.00 0.00 0.00 83 1023.4
20260831035620 74 208 2.0 4.0 0.00 0.00 0.00 83 1023.2
20260831035557 74 208 2.0 4.0 0.00 0.00 0.00 83 1023.2
20260831035544 74 208 2.0 4.0 0.00 0.00 0.00 83 1023.2
20260831035318 74 166 2.0 5.0 0.00 0.00 0.00 83 1023.2
20260831035218 74 214 2.0 5.0 0.00 0.00 0.00 83 1023.2
20260831035122 74 214 2.0 5.0 0.00 0.00 0.00 83 1023.2
20260831035018 74 214 2.0 7.0 0.00 0.00 0.00 83 1023.2
20260831034918 74 200 2.0 7.0 0.00 0.00 0.00 83 1023.2
20260831034816 74 200 2.0 7.0 0.00 0.00 0.00 83 1023.2
20260831034718 74 187 2.0 7.0 0.00 0.00 0.00 83 1023.2
20260831034652 74 180 2.0 7.0 0.00 0.00 0.00 83 1023.2
20260831034640 74 180 2.0 7.0 0.00 0.00 0.00 83 1023.2
20260831034416 74 223 2.0 7.0 0.00 0.00 0.00 83 1023.2
20260831034316 74 194 2.0 7.0 0.00 0.00 0.00 83 1023.2
20260831034218 74 165 2.0 7.0 0.00 0.00 0.00 83 1023.2
20260831034116 74 220 2.0 7.0 0.00 0.00 0.00 82 1023.4
20260831034014 74 223 2.0 7.0 0.00 0.00 0.00 82 1023.4
20260831033914 74 198 2.0 7.0 0.00 0.00 0.00 82 1023.4
20260831033812 74 194 2.0 7.0 0.00 0.00 0.00 82 1023.2
20260831033709 74 219 2.0 7.0 0.00 0.00 0.00 82 1023.4
20260831033610 74 192 2.0 7.0 0.00 0.00 0.00 82 1023.4
20260831033514 74 185 2.0 7.0 0.00 0.00 0.00 82 1023.4
20260831033409 74 197 2.0 7.0 0.00 0.00 0.00 82 1023.2
20260831033309 74 192 2.0 7.0 0.00 0.00 0.00 82 1023.2
20260831033208 74 192 2.0 7.0 0.00 0.00 0.00 81 1023.2
20260831033109 74 192 2.0 7.0 0.00 0.00 0.00 81 1023.2
20260831033009 74 159 2.0 6.0 0.00 0.00 0.00 81 1023.4
20260831032909 74 192 2.0 6.0 0.00 0.00 0.00 81 1023.2
20260831032808 74 192 2.0 6.0 0.00 0.00 0.00 81 1023.4
20260831032704 74 202 2.0 6.0 0.00 0.00 0.00 81 1023.4
20260831032605 74 130 2.0 6.0 0.00 0.00 0.00 81 1023.4
20260831032503 75 220 2.0 6.0 0.00 0.00 0.00 81 1023.4
20260831032403 75 204 2.0 6.0 0.00 0.00 0.00 81 1023.4
20260831032306 75 211 2.0 6.0 0.00 0.00 0.00 81 1023.4
20260831032200 75 217 2.0 6.0 0.00 0.00 0.00 81 1023.5
20260831032059 75 273 2.0 6.0 0.00 0.00 0.00 80 1023.5
20260831032035 75 200 2.0 6.0 0.00 0.00 0.00 80 1023.5
20260831032024 75 200 2.0 6.0 0.00 0.00 0.00 80 1023.5
20260831031754 75 198 2.0 6.0 0.00 0.00 0.00 80 1023.5
20260831031653 75 186 2.0 6.0 0.00 0.00 0.00 80 1023.5
20260831031628 75 223 2.0 5.0 0.00 0.00 0.00 79 1023.6
20260831031614 75 190 2.0 6.0 0.00 0.00 0.00 80 1023.6
20260831031351 75 223 2.0 5.0 0.00 0.00 0.00 79 1023.6
20260831031251 75 223 2.0 5.0 0.00 0.00 0.00 79 1023.6
20260831031151 75 182 2.0 5.0 0.00 0.00 0.00 79 1023.6
20260831031049 76 182 2.0 5.0 0.00 0.00 0.00 79 1023.7
20260831030953 76 207 2.0 7.0 0.00 0.00 0.00 79 1023.6
20260831030848 76 207 2.0 7.0 0.00 0.00 0.00 79 1023.6
20260831030747 76 207 2.0 7.0 0.00 0.00 0.00 79 1023.7
20260831030646 76 183 2.0 7.0 0.00 0.00 0.00 78 1023.7
20260831030540 76 182 2.0 7.0 0.00 0.00 0.00 78 1023.6
20260831030440 76 263 1.0 7.0 0.00 0.00 0.00 78 1023.7
20260831030340 76 209 1.0 7.0 0.00 0.00 0.00 78 1023.6
20260831030238 76 218 2.0 7.0 0.00 0.00 0.00 78 1023.5
20260831030138 76 196 2.0 7.0 0.00 0.00 0.00 77 1023.6
20260831030036 76 251 2.0 7.0 0.00 0.00 0.00 77 1023.6
20260831025936 77 183 2.0 5.0 0.00 0.00 0.00 77 1023.6
20260831025838 77 234 2.0 5.0 0.00 0.00 0.00 77 1023.6
20260831025745 77 150 2.0 5.0 0.00 0.00 0.00 76 1023.5
20260831025734 77 234 2.0 5.0 0.00 0.00 0.00 77 1023.6
20260831025727 77 150 2.0 5.0 0.00 0.00 0.00 76 1023.6
20260831025706 77 234 2.0 5.0 0.00 0.00 0.00 76 1023.6
20260831025508 77 150 2.0 5.0 0.00 0.00 0.00 76 1023.6
20260831025234 77 137 2.0 5.0 0.00 0.00 0.00 76 1023.6
20260831025134 77 136 2.0 8.0 0.00 0.00 0.00 76 1023.6
20260831025032 77 133 2.0 8.0 0.00 0.00 0.00 76 1023.5
20260831024931 77 162 2.0 8.0 0.00 0.00 0.00 76 1023.5
20260831024828 77 162 2.0 8.0 0.00 0.00 0.00 76 1023.4
20260831024726 77 181 2.0 8.0 0.00 0.00 0.00 76 1023.5
20260831024624 77 205 2.0 8.0 0.00 0.00 0.00 76 1023.4
20260831024529 77 164 2.0 8.0 0.00 0.00 0.00 76 1023.4
20260831024431 77 164 2.0 8.0 0.00 0.00 0.00 76 1023.4
20260831024322 77 204 2.0 8.0 0.00 0.00 0.00 76 1023.4
20260831024223 77 204 2.0 8.0 0.00 0.00 0.00 76 1023.2
20260831024127 77 194 2.0 6.0 0.00 0.00 0.00 76 1023.2
20260831024118 77 138 2.0 6.0 0.00 0.00 0.00 76 1023.2
20260831024100 77 173 2.0 6.0 0.00 0.00 0.00 76 1023.2
20260831023856 77 161 2.0 6.0 0.00 0.00 0.00 76 1023.2
20260831023844 77 217 2.0 6.0 0.00 0.00 0.00 76 1023.2
20260831023617 77 211 2.0 5.0 0.00 0.00 0.00 76 1023.2
20260831023520 77 227 2.0 4.0 0.00 0.00 0.00 76 1023.2
20260831023419 77 187 2.0 6.0 0.00 0.00 0.00 75 1023.2
20260831023358 77 157 2.0 6.0 0.00 0.00 0.00 75 1023.1
20260831023345 77 184 2.0 6.0 0.00 0.00 0.00 75 1023.1
20260831023118 77 153 2.0 6.0 0.00 0.00 0.00 75 1023.1
20260831023050 77 230 2.0 6.0 0.00 0.00 0.00 75 1023.2
20260831023035 77 203 2.0 6.0 0.00 0.00 0.00 75 1023.1
20260831023012 77 215 2.0 6.0 0.00 0.00 0.00 75 1023.1
20260831022951 77 240 2.0 6.0 0.00 0.00 0.00 75 1023.1
20260831022758 77 222 2.0 6.0 0.00 0.00 0.00 75 1023.1
20260831022515 77 215 2.0 6.0 0.00 0.00 0.00 75 1023.1
20260831022421 77 162 2.0 8.0 0.00 0.00 0.00 75 1023.2
20260831022410 77 209 2.0 8.0 0.00 0.00 0.00 75 1023.0
20260831022352 77 244 2.0 8.0 0.00 0.00 0.00 75 1023.1
20260831022106 77 209 2.0 8.0 0.00 0.00 0.00 75 1023.0
20260831022009 77 168 2.0 8.0 0.00 0.00 0.00 75 1023.0
20260831021907 77 168 2.0 8.0 0.00 0.00 0.00 75 1023.0
20260831021807 77 175 2.0 8.0 0.00 0.00 0.00 75 1023.0
20260831021754 77 183 2.0 8.0 0.00 0.00 0.00 75 1023.0
20260831021737 77 184 2.0 8.0 0.00 0.00 0.00 75 1023.0
20260831021508 77 184 2.0 8.0 0.00 0.00 0.00 75 1023.0
20260831021441 77 165 2.0 6.0 0.00 0.00 0.00 75 1023.0
20260831021428 77 165 2.0 7.0 0.00 0.00 0.00 75 1023.0
20260831021204 77 198 2.0 6.0 0.00 0.00 0.00 75 1023.0
20260831021050 77 217 2.0 6.0 0.00 0.00 0.00 75 1022.9
20260831020951 77 182 2.0 7.0 0.00 0.00 0.00 75 1023.0
20260831020851 77 227 2.0 7.0 0.00 0.00 0.00 75 1023.0
20260831020825 77 236 2.0 7.0 0.00 0.00 0.00 76 1023.0
20260831020815 77 139 2.0 7.0 0.00 0.00 0.00 75 1023.0
20260831020636 77 212 2.0 8.0 0.00 0.00 0.00 76 1023.0
20260831020630 77 189 2.0 7.0 0.00 0.00 0.00 76 1023.0
20260831020625 77 189 2.0 8.0 0.00 0.00 0.00 76 1023.1
20260831020619 77 200 2.0 8.0 0.00 0.00 0.00 76 1023.0
20260831020610 77 236 2.0 7.0 0.00 0.00 0.00 76 1023.0
20260831020548 77 294 2.0 7.0 0.00 0.00 0.00 76 1023.1
20260831020424 77 203 2.0 7.0 0.00 0.00 0.00 76 1023.1
20260831020401 77 196 2.0 7.0 0.00 0.00 0.00 76 1023.1
20260831015738 77 212 2.0 8.0 0.00 0.00 0.00 76 1023.0
20260831015639 77 242 2.0 8.0 0.00 0.00 0.00 76 1023.1
20260831015548 77 183 2.0 8.0 0.00 0.00 0.00 76 1023.0
20260831015543 77 168 2.0 8.0 0.00 0.00 0.00 76 1023.0
20260831015530 77 242 2.0 8.0 0.00 0.00 0.00 76 1023.0
20260831015508 77 242 2.0 8.0 0.00 0.00 0.00 76 1023.0
20260831015124 77 167 2.0 8.0 0.00 0.00 0.00 76 1023.0
20260831015051 77 148 2.0 7.0 0.00 0.00 0.00 76 1023.1
20260831015040 77 150 2.0 7.0 0.00 0.00 0.00 76 1023.0
20260831014820 77 237 2.0 7.0 0.00 0.00 0.00 76 1023.0
20260831014719 76 172 2.0 5.0 0.00 0.00 0.00 76 1023.0
20260831014652 76 155 1.0 5.0 0.00 0.00 0.00 76 1023.0
20260831014640 76 199 2.0 5.0 0.00 0.00 0.00 76 1023.0
20260831014416 76 154 1.0 5.0 0.00 0.00 0.00 77 1023.0
20260831014316 76 202 1.0 5.0 0.00 0.00 0.00 76 1023.0
20260831014215 76 190 1.0 5.0 0.00 0.00 0.00 76 1022.9
20260831014112 76 175 1.0 5.0 0.00 0.00 0.00 77 1023.0
20260831014005 76 227 1.0 5.0 0.00 0.00 0.00 77 1022.9
20260831013906 76 145 1.0 5.0 0.00 0.00 0.00 77 1022.9
20260831013806 76 142 1.0 5.0 0.00 0.00 0.00 77 1022.9
20260831013750 76 158 1.0 5.0 0.00 0.00 0.00 77 1022.9
20260831013736 76 142 1.0 5.0 0.00 0.00 0.00 77 1023.0
20260831013502 75 158 1.0 5.0 0.00 0.00 0.00 78 1022.9
20260831013402 75 176 1.0 5.0 0.00 0.00 0.00 78 1022.9
20260831013259 75 174 1.0 5.0 0.00 0.00 0.00 78 1022.9
20260831013159 75 178 1.0 5.0 0.00 0.00 0.00 78 1022.9
20260831013057 75 180 1.0 5.0 0.00 0.00 0.00 78 1023.0
20260831012952 75 181 1.0 3.0 0.00 0.00 0.00 78 1022.9
20260831012850 75 181 1.0 3.0 0.00 0.00 0.00 78 1022.9
20260831012751 75 168 1.0 3.0 0.00 0.00 0.00 78 1022.8
20260831012651 75 202 1.0 2.0 0.00 0.00 0.00 79 1022.9
20260831012551 75 202 1.0 2.0 0.00 0.00 0.00 79 1022.8
20260831012441 75 202 1.0 4.0 0.00 0.00 0.00 79 1022.9
20260831012339 75 202 1.0 4.0 0.00 0.00 0.00 79 1022.8
20260831012244 75 208 1.0 4.0 0.00 0.00 0.00 79 1022.8
20260831012237 75 219 1.0 4.0 0.00 0.00 0.00 79 1022.9
20260831012232 76 219 1.0 6.0 0.00 0.00 0.00 79 1022.8
20260831012213 75 219 1.0 4.0 0.00 0.00 0.00 79 1022.8
20260831011830 76 219 1.0 6.0 0.00 0.00 0.00 79 1022.8
20260831011803 76 198 1.0 6.0 0.00 0.00 0.00 79 1022.7
20260831011753 76 249 1.0 6.0 0.00 0.00 0.00 79 1022.7
20260831011530 76 198 1.0 6.0 0.00 0.00 0.00 78 1022.7
20260831011429 76 188 1.0 6.0 0.00 0.00 0.00 79 1022.7
20260831011328 76 211 1.0 6.0 0.00 0.00 0.00 79 1022.7
20260831011228 76 211 1.0 6.0 0.00 0.00 0.00 79 1022.7
20260831011127 76 211 1.0 6.0 0.00 0.00 0.00 78 1022.7
20260831011025 76 184 1.0 4.0 0.00 0.00 0.00 78 1022.6
20260831010947 76 184 1.0 4.0 0.00 0.00 0.00 78 1022.6
20260831010936 76 184 1.0 4.0 0.00 0.00 0.00 78 1022.6
20260831010754 76 186 1.0 4.0 0.00 0.00 0.00 78 1022.6
20260831010743 76 184 1.0 4.0 0.00 0.00 0.00 78 1022.6
20260831010518 76 257 1.0 4.0 0.00 0.00 0.00 78 1022.6
20260831010409 76 198 1.0 4.0 0.00 0.00 0.00 78 1022.5
20260831010307 76 199 1.0 4.0 0.00 0.00 0.00 78 1022.5
20260831010209 76 221 1.0 4.0 0.00 0.00 0.00 78 1022.5
20260831010108 76 253 1.0 4.0 0.00 0.00 0.00 77 1022.5
20260831010009 76 185 1.0 4.0 0.00 0.00 0.00 77 1022.5
20260831005906 76 185 1.0 4.0 0.00 0.00 0.00 77 1022.5
20260831005807 76 185 1.0 4.0 0.00 0.00 0.00 77 1022.4
20260831005707 76 185 1.0 4.0 0.00 0.00 0.00 77 1022.4
20260831005606 76 210 1.0 4.0 0.00 0.00 0.00 77 1022.4
20260831005503 76 210 1.0 4.0 0.00 0.00 0.00 77 1022.4
20260831005427 76 192 0.0 3.0 0.00 0.00 0.00 77 1022.4
20260831005414 76 209 1.0 4.0 0.00 0.00 0.00 77 1022.4
20260831005153 76 186 0.0 3.0 0.00 0.00 0.00 77 1022.5
20260831005051 76 197 1.0 5.0 0.00 0.00 0.00 77 1022.4
20260831004949 76 195 1.0 5.0 0.00 0.00 0.00 77 1022.4
20260831004917 76 201 1.0 5.0 0.00 0.00 0.00 77 1022.4
20260831004905 76 195 1.0 5.0 0.00 0.00 0.00 77 1022.4
20260831004641 76 150 0.0 5.0 0.00 0.00 0.00 77 1022.4
20260831004616 76 150 1.0 5.0 0.00 0.00 0.00 77 1022.4
20260831004605 76 150 1.0 5.0 0.00 0.00 0.00 77 1022.4
20260831004353 76 150 1.0 5.0 0.00 0.00 0.00 77 1022.4
20260831004341 76 150 1.0 5.0 0.00 0.00 0.00 77 1022.4
20260831004335 76 92 1.0 5.0 0.00 0.00 0.00 76 1022.4
20260831004315 76 150 1.0 5.0 0.00 0.00 0.00 77 1022.4
20260831003937 76 207 0.0 5.0 0.00 0.00 0.00 76 1022.4
20260831003829 76 186 1.0 5.0 0.00 0.00 0.00 76 1022.5
20260831003758 76 186 1.0 5.0 0.00 0.00 0.00 76 1022.5
20260831003748 76 186 1.0 5.0 0.00 0.00 0.00 76 1022.4
20260831003527 76 185 1.0 4.0 0.00 0.00 0.00 76 1022.4
20260831003427 76 188 1.0 4.0 0.00 0.00 0.00 76 1022.5
20260831003321 76 188 1.0 4.0 0.00 0.00 0.00 76 1022.5
20260831003124 77 188 1.0 4.0 0.00 0.00 0.00 76 1022.4
20260831003023 76 188 1.0 4.0 0.00 0.00 0.00 76 1022.4
20260831002921 77 188 1.0 4.0 0.00 0.00 0.00 76 1022.4
20260831002814 76 209 1.0 4.0 0.00 0.00 0.00 76 1022.4
20260831002713 77 153 1.0 2.0 0.00 0.00 0.00 76 1022.4
20260831002613 77 150 1.0 2.0 0.00 0.00 0.00 76 1022.5
20260831002514 77 150 1.0 2.0 0.00 0.00 0.00 76 1022.4
20260831002415 77 136 1.0 2.0 0.00 0.00 0.00 75 1022.4
20260831002300 77 36 1.0 2.0 0.00 0.00 0.00 76 1022.4
20260831002235 77 5 1.0 2.0 0.00 0.00 0.00 75 1022.4
20260831002224 77 37 1.0 2.0 0.00 0.00 0.00 75 1022.5
20260831002001 77 47 1.0 2.0 0.00 0.00 0.00 75 1022.4
20260831001901 77 260 1.0 2.0 0.00 0.00 0.00 75 1022.2
20260831001801 77 260 0.0 2.0 0.00 0.00 0.00 75 1022.3
20260831001732 77 265 0.0 3.0 0.00 0.00 0.00 75 1022.4
20260831001720 77 265 1.0 2.0 0.00 0.00 0.00 75 1022.3
20260831001455 77 184 0.0 3.0 0.00 0.00 0.00 75 1022.3
20260831001355 77 183 1.0 3.0 0.00 0.00 0.00 75 1022.4
20260831001254 77 183 0.0 3.0 0.00 0.00 0.00 75 1022.3
20260831001153 77 182 0.0 3.0 0.00 0.00 0.00 75 1022.4
20260831001054 77 182 0.0 3.0 0.00 0.00 0.00 75 1022.3
20260831001046 77 181 0.0 3.0 0.00 0.00 0.00 75 1022.5
20260831001024 77 195 0.0 3.0 0.00 0.00 0.00 75 1022.4
20260831001013 77 181 0.0 3.0 0.00 0.00 0.00 75 1022.5
20260831000752 77 195 0.0 3.0 0.00 0.00 0.00 75 1022.4
20260831000650 77 196 0.0 3.0 0.00 0.00 0.00 75 1022.4
20260831000551 77 191 0.0 3.0 0.00 0.00 0.00 75 1022.4
20260831000448 77 191 0.0 3.0 0.00 0.00 0.00 75 1022.5
20260831000348 77 189 0.0 3.0 0.00 0.00 0.00 76 1022.4
20260831000315 77 117 0.0 3.0 0.00 0.00 0.00 75 1022.5
20260831000310 77 269 0.0 3.0 0.00 0.00 0.00 76 1022.5
20260831000043 77 117 0.0 3.0 0.00 0.00 0.00 75 1022.5
20260831000005 78 174 1.0 4.0 0.00 0.00 0.00 75 1022.5
20260830235959 78 224 1.0 3.0 0.00 0.00 0.00 76 1022.5
20260830235955 78 224 1.0 4.0 0.00 0.00 0.00 76 1022.6
20260830235943 78 224 0.0 3.0 0.00 0.00 0.00 76 1022.5
20260830235925 78 224 1.0 3.0 0.00 0.00 0.00 76 1022.5
20260830235745 78 224 1.0 4.0 0.00 0.00 0.00 76 1022.5
20260830235410 78 198 1.0 4.0 0.00 0.00 0.00 75 1022.5
20260830235401 78 174 1.0 4.0 0.00 0.00 0.00 75 1022.5
20260830235135 78 198 1.0 4.0 0.00 0.00 0.00 75 1022.6
20260830235050 78 227 0.0 4.0 0.00 0.00 0.00 74 1022.5
20260830235045 78 191 0.0 4.0 0.00 0.00 0.00 75 1022.5
20260830235032 78 198 1.0 4.0 0.00 0.00 0.00 75 1022.5
20260830235009 78 188 1.0 4.0 0.00 0.00 0.00 74 1022.6
20260830234630 78 168 0.0 4.0 0.00 0.00 0.00 75 1022.5
20260830234525 78 168 0.0 4.0 0.00 0.00 0.00 74 1022.5
20260830234427 78 160 0.0 3.0 0.00 0.00 0.00 74 1022.5
20260830234326 78 160 1.0 3.0 0.00 0.00 0.00 75 1022.6
20260830234305 79 159 1.0 3.0 0.00 0.00 0.00 74 1022.6
20260830234252 79 160 1.0 3.0 0.00 0.00 0.00 74 1022.5
20260830234015 79 192 1.0 3.0 0.00 0.00 0.00 74 1022.5
20260830233916 79 198 1.0 2.0 0.00 0.00 0.00 74 1022.5
20260830233849 79 198 1.0 3.0 0.00 0.00 0.00 74 1022.5
20260830233839 79 198 1.0 2.0 0.00 0.00 0.00 74 1022.5
20260830233616 79 198 1.0 3.0 0.00 0.00 0.00 74 1022.5
20260830233518 79 197 1.0 3.0 0.00 0.00 0.00 73 1022.5
20260830233414 79 197 1.0 3.0 0.00 0.00 0.00 73 1022.5
20260830233314 79 197 1.0 3.0 0.00 0.00 0.00 74 1022.5
20260830233218 79 201 1.0 3.0 0.00 0.00 0.00 74 1022.5
20260830233113 80 200 1.0 3.0 0.00 0.00 0.00 73 1022.5
20260830233045 80 215 1.0 3.0 0.00 0.00 0.00 73 1022.6
20260830233038 80 215 1.0 3.0 0.00 0.00 0.00 73 1022.5
20260830232811 80 216 1.0 3.0 0.00 0.00 0.00 72 1022.5
20260830232737 80 200 1.0 4.0 0.00 0.00 0.00 72 1022.5
20260830232730 80 196 1.0 3.0 0.00 0.00 0.00 72 1022.5
20260830232507 80 200 1.0 4.0 0.00 0.00 0.00 72 1022.5
20260830232433 80 200 1.0 4.0 0.00 0.00 0.00 72 1022.5
20260830232425 80 200 1.0 4.0 0.00 0.00 0.00 72 1022.4
20260830232206 80 200 1.0 4.0 0.00 0.00 0.00 71 1022.6
20260830232104 80 193 1.0 4.0 0.00 0.00 0.00 72 1022.5
20260830232004 80 190 1.0 4.0 0.00 0.00 0.00 72 1022.6
20260830231903 80 174 1.0 4.0 0.00 0.00 0.00 72 1022.6
20260830231827 80 212 1.0 5.0 0.00 0.00 0.00 71 1022.6
20260830231815 80 216 1.0 5.0 0.00 0.00 0.00 72 1022.5
20260830231556 80 197 1.0 5.0 0.00 0.00 0.00 70 1022.6
20260830231456 80 186 1.0 5.0 0.00 0.00 0.00 70 1022.6
20260830231357 81 190 1.0 5.0 0.00 0.00 0.00 70 1022.6
20260830231257 81 187 1.0 5.0 0.00 0.00 0.00 70 1022.6
20260830231154 81 244 1.0 5.0 0.00 0.00 0.00 71 1022.6
20260830231056 81 209 1.0 5.0 0.00 0.00 0.00 71 1022.6
20260830231047 81 209 1.0 6.0 0.00 0.00 0.00 71 1022.6
20260830231040 81 165 1.0 6.0 0.00 0.00 0.00 70 1022.6
20260830231024 81 209 1.0 6.0 0.00 0.00 0.00 70 1022.6
20260830230718 81 221 1.0 6.0 0.00 0.00 0.00 69 1022.6
20260830230703 81 165 1.0 6.0 0.00 0.00 0.00 70 1022.6
20260830230440 81 222 1.0 6.0 0.00 0.00 0.00 70 1022.6
20260830230341 81 235 1.0 6.0 0.00 0.00 0.00 70 1022.6
20260830230238 81 232 1.0 6.0 0.00 0.00 0.00 69 1022.6
20260830230204 81 236 1.0 7.0 0.00 0.00 0.00 68 1022.6
20260830230158 82 135 1.0 7.0 0.00 0.00 0.00 68 1022.7
20260830230144 81 237 1.0 6.0 0.00 0.00 0.00 68 1022.7
20260830230118 81 186 1.0 7.0 0.00 0.00 0.00 69 1022.7
20260830225732 82 135 2.0 7.0 0.00 0.00 0.00 68 1022.7
20260830225638 82 131 2.0 7.0 0.00 0.00 0.00 68 1022.6
20260830225531 82 126 2.0 7.0 0.00 0.00 0.00 69 1022.7
20260830225432 82 192 2.0 7.0 0.00 0.00 0.00 68 1022.6
20260830225332 82 229 2.0 7.0 0.00 0.00 0.00 68 1022.6
20260830225232 82 184 2.0 7.0 0.00 0.00 0.00 68 1022.6
20260830225204 82 140 2.0 7.0 0.00 0.00 0.00 68 1022.6
20260830225152 82 218 2.0 7.0 0.00 0.00 0.00 69 1022.6
20260830224932 82 138 2.0 7.0 0.00 0.00 0.00 67 1022.6
20260830224834 82 210 2.0 7.0 0.00 0.00 0.00 67 1022.6
20260830224732 82 209 2.0 7.0 0.00 0.00 0.00 67 1022.6
20260830224706 82 227 1.0 6.0 0.00 0.00 0.00 66 1022.6
20260830224654 82 175 1.0 6.0 0.00 0.00 0.00 67 1022.6
20260830224433 82 178 1.0 6.0 0.00 0.00 0.00 66 1022.6
20260830224327 82 203 1.0 6.0 0.00 0.00 0.00 67 1022.6
20260830224228 82 202 1.0 6.0 0.00 0.00 0.00 66 1022.6
20260830224127 82 236 1.0 6.0 0.00 0.00 0.00 67 1022.6
20260830224027 82 213 1.0 5.0 0.00 0.00 0.00 68 1022.6
20260830223925 82 219 1.0 5.0 0.00 0.00 0.00 67 1022.6
20260830223827 83 189 1.0 5.0 0.00 0.00 0.00 67 1022.6
20260830223726 83 189 1.0 5.0 0.00 0.00 0.00 67 1022.7
20260830223625 83 192 1.0 5.0 0.00 0.00 0.00 67 1022.6
20260830223527 83 192 1.0 5.0 0.00 0.00 0.00 67 1022.6
20260830223426 83 204 2.0 5.0 0.00 0.00 0.00 67 1022.7
20260830223327 83 204 2.0 8.0 0.00 0.00 0.00 66 1022.6
20260830223225 83 204 2.0 8.0 0.00 0.00 0.00 66 1022.7
20260830223125 83 204 2.0 8.0 0.00 0.00 0.00 66 1022.6
20260830223027 83 198 2.0 8.0 0.00 0.00 0.00 65 1022.7
20260830222924 83 210 1.0 8.0 0.00 0.00 0.00 65 1022.7
20260830222826 83 197 1.0 8.0 0.00 0.00 0.00 65 1022.7
20260830222725 83 196 1.0 8.0 0.00 0.00 0.00 65 1022.6
20260830222700 83 196 1.0 8.0 0.00 0.00 0.00 64 1022.6
20260830222649 83 196 1.0 8.0 0.00 0.00 0.00 65 1022.6
20260830222422 83 269 1.0 8.0 0.00 0.00 0.00 64 1022.6
20260830222321 83 243 1.0 5.0 0.00 0.00 0.00 64 1022.7
20260830222221 83 263 1.0 5.0 0.00 0.00 0.00 65 1022.6
20260830222123 83 265 1.0 5.0 0.00 0.00 0.00 64 1022.6
20260830222021 83 265 1.0 5.0 0.00 0.00 0.00 64 1022.6
20260830221950 83 228 2.0 6.0 0.00 0.00 0.00 64 1022.6
20260830221941 83 228 1.0 6.0 0.00 0.00 0.00 64 1022.6
20260830221717 83 228 2.0 6.0 0.00 0.00 0.00 64 1022.5
20260830221616 83 239 1.0 6.0 0.00 0.00 0.00 64 1022.6
20260830221517 84 167 1.0 6.0 0.00 0.00 0.00 64 1022.5
20260830221448 84 203 1.0 6.0 0.00 0.00 0.00 63 1022.6
20260830221437 84 154 1.0 6.0 0.00 0.00 0.00 63 1022.6
20260830221218 84 203 1.0 6.0 0.00 0.00 0.00 63 1022.6
20260830221117 84 203 1.0 6.0 0.00 0.00 0.00 63 1022.6
20260830221050 84 207 1.0 4.0 0.00 0.00 0.00 63 1022.6
20260830221037 84 203 1.0 6.0 0.00 0.00 0.00 63 1022.6
20260830220817 84 207 1.0 4.0 0.00 0.00 0.00 63 1022.6
20260830220719 84 206 1.0 4.0 0.00 0.00 0.00 63 1022.6
20260830220618 84 121 1.0 4.0 0.00 0.00 0.00 64 1022.6
20260830220519 84 117 1.0 4.0 0.00 0.00 0.00 63 1022.5
20260830220417 84 265 1.0 4.0 0.00 0.00 0.00 63 1022.5
20260830220317 84 231 1.0 5.0 0.00 0.00 0.00 64 1022.5
20260830220217 84 238 1.0 5.0 0.00 0.00 0.00 63 1022.5
20260830220117 84 192 1.0 5.0 0.00 0.00 0.00 63 1022.5
20260830220018 85 199 1.0 6.0 0.00 0.00 0.00 62 1022.5
20260830215923 85 208 1.0 6.0 0.00 0.00 0.00 62 1022.5
20260830215817 85 208 1.0 6.0 0.00 0.00 0.00 62 1022.5
20260830215750 85 208 1.0 6.0 0.00 0.00 0.00 62 1022.5
20260830215740 85 208 1.0 6.0 0.00 0.00 0.00 62 1022.5
20260830215517 85 211 1.0 6.0 0.00 0.00 0.00 62 1022.5
20260830215417 85 208 1.0 6.0 0.00 0.00 0.00 61 1022.4
20260830215316 85 30 1.0 6.0 0.00 0.00 0.00 61 1022.5
20260830215219 85 30 1.0 6.0 0.00 0.00 0.00 62 1022.6
20260830215105 85 30 1.0 6.0 0.00 0.00 0.00 61 1022.5
20260830215037 86 172 1.0 5.0 0.00 0.00 0.00 60 1022.6
20260830215027 86 213 1.0 6.0 0.00 0.00 0.00 60 1022.5
20260830214805 86 197 2.0 7.0 0.00 0.00 0.00 60 1022.5
20260830214707 86 184 1.0 7.0 0.00 0.00 0.00 59 1022.6
20260830214606 86 186 1.0 7.0 0.00 0.00 0.00 60 1022.6
20260830214506 86 225 1.0 7.0 0.00 0.00 0.00 60 1022.5
20260830214405 86 225 2.0 7.0 0.00 0.00 0.00 60 1022.5
20260830214306 87 189 2.0 7.0 0.00 0.00 0.00 59 1022.5
20260830214205 87 177 2.0 7.0 0.00 0.00 0.00 59 1022.5
20260830214141 87 258 2.0 7.0 0.00 0.00 0.00 59 1022.5
20260830214131 87 177 2.0 7.0 0.00 0.00 0.00 59 1022.5
20260830213857 87 180 2.0 7.0 0.00 0.00 0.00 59 1022.5
20260830213759 87 150 2.0 7.0 0.00 0.00 0.00 60 1022.6
20260830213715 87 191 1.0 7.0 0.00 0.00 0.00 59 1022.6
20260830213702 87 191 2.0 7.0 0.00 0.00 0.00 60 1022.6
20260830213637 87 191 2.0 7.0 0.00 0.00 0.00 58 1022.6
20260830213515 87 191 2.0 7.0 0.00 0.00 0.00 60 1022.6
20260830213253 87 267 1.0 7.0 0.00 0.00 0.00 59 1022.5
20260830213227 87 294 1.0 7.0 0.00 0.00 0.00 60 1022.5
20260830213216 87 294 2.0 7.0 0.00 0.00 0.00 60 1022.5
20260830212951 87 207 1.0 7.0 0.00 0.00 0.00 60 1022.5
20260830212853 87 173 1.0 7.0 0.00 0.00 0.00 60 1022.5
20260830212751 87 173 1.0 7.0 0.00 0.00 0.00 60 1022.5